Wetterdaten: aktuell Mittwoch, 16.10.2019 06:56
Datum Zeit Temp. Aussen Temp. o. S. Temp +5cm Feuchte Auss Luftdruck Regen Sonnenschein Regendauer Solar Windben Empfang
16.10.2019 06:56 11,5 C 10,0 C 10,0 C 96 % 1010,2 hPa 0,0 l/m 0 min 0 min 0 W/m 3,2 km/h (1 Bft) 97,87 %
16.10.2019 06:54 11,5 C 10,0 C 10,0 C 96 % 1010,2 hPa 0,0 l/m 0 min 0 min 0 W/m 3,2 km/h (1 Bft) 95,74 %
16.10.2019 06:52 11,5 C 10,0 C 10,0 C 96 % 1010,2 hPa 0,0 l/m 0 min 0 min 0 W/m 12,9 km/h (3 Bft) 95,65 %
16.10.2019 06:50 11,5 C 10,0 C 9,4 C 96 % 1010,2 hPa 0,0 l/m 0 min 2 min 0 W/m 12,9 km/h (3 Bft) 97,87 %
16.10.2019 06:48 11,5 C 10,0 C 9,4 C 96 % 1010,1 hPa 0,0 l/m 0 min 0 min 0 W/m 16,1 km/h (3 Bft) 95,74 %
16.10.2019 06:46 11,5 C 10,0 C 9,4 C 96 % 1010,3 hPa 0,0 l/m 0 min 0 min 0 W/m 12,9 km/h (3 Bft) 95,74 %
16.10.2019 06:44 11,5 C 10,0 C 9,4 C 96 % 1010,2 hPa 0,0 l/m 0 min 0 min 0 W/m 12,9 km/h (3 Bft) 93,62 %
16.10.2019 06:42 11,5 C 10,0 C 9,4 C 96 % 1010,2 hPa 0,0 l/m 0 min 0 min 0 W/m 16,1 km/h (3 Bft) 97,83 %
16.10.2019 06:40 11,5 C 10,0 C 9,4 C 96 % 1010,2 hPa 0,2 l/m 0 min 0 min 0 W/m 12,9 km/h (3 Bft) 97,87 %
16.10.2019 06:38 11,5 C 10,0 C 9,4 C 96 % 1010,3 hPa 0,0 l/m 0 min 0 min 0 W/m 19,3 km/h (3 Bft) 95,74 %
16.10.2019 06:36 11,5 C 10,0 C 9,4 C 96 % 1010,2 hPa 0,0 l/m 0 min 0 min 0 W/m 6,4 km/h (2 Bft) 95,74 %
16.10.2019 06:34 11,5 C 10,0 C 9,4 C 96 % 1010,2 hPa 0,0 l/m 0 min 2 min 0 W/m 6,4 km/h (2 Bft) 97,87 %
16.10.2019 06:32 11,5 C 10,0 C 9,4 C 96 % 1010,2 hPa 0,0 l/m 0 min 2 min 0 W/m 6,4 km/h (2 Bft) 97,87 %
16.10.2019 06:30 11,4 C 10,0 C 9,4 C 96 % 1010,2 hPa 0,0 l/m 0 min 2 min 0 W/m 19,3 km/h (3 Bft) 97,83 %
16.10.2019 06:28 11,4 C 10,0 C 9,4 C 95 % 1010,2 hPa 0,2 l/m 0 min 2 min 0 W/m 19,3 km/h (3 Bft) 95,74 %
16.10.2019 06:26 11,4 C 10,0 C 9,4 C 95 % 1010,2 hPa 0,0 l/m 0 min 2 min 0 W/m 16,1 km/h (3 Bft) 93,62 %
16.10.2019 06:24 11,4 C 10,0 C 9,4 C 95 % 1010,1 hPa 0,0 l/m 0 min 2 min 0 W/m 19,3 km/h (3 Bft) 97,87 %
16.10.2019 06:22 11,4 C 10,0 C 9,4 C 95 % 1010,2 hPa 0,0 l/m 0 min 2 min 0 W/m 19,3 km/h (3 Bft) 97,87 %
16.10.2019 06:20 11,4 C 10,0 C 9,4 C 95 % 1010,2 hPa 0,0 l/m 0 min 2 min 0 W/m 19,3 km/h (3 Bft) 97,87 %
16.10.2019 06:18 11,4 C 10,6 C 10,0 C 95 % 1010,2 hPa 0,0 l/m 0 min 0 min 0 W/m 16,1 km/h (3 Bft) 97,83 %
16.10.2019 06:16 11,4 C 10,0 C 10,0 C 95 % 1010,1 hPa 0,0 l/m 0 min 0 min 0 W/m 12,9 km/h (3 Bft) 97,87 %
16.10.2019 06:14 11,4 C 10,0 C 10,0 C 95 % 1010,0 hPa 0,0 l/m 0 min 0 min 0 W/m 12,9 km/h (3 Bft) 97,87 %
16.10.2019 06:12 11,4 C 10,0 C 10,0 C 95 % 1010,0 hPa 0,0 l/m 0 min 0 min 0 W/m 16,1 km/h (3 Bft) 97,87 %
16.10.2019 06:10 11,4 C 10,0 C 9,4 C 95 % 1010,0 hPa 0,0 l/m 0 min 0 min 0 W/m 16,1 km/h (3 Bft) 95,74 %
16.10.2019 06:08 11,4 C 10,0 C 9,4 C 95 % 1010,1 hPa 0,0 l/m 0 min 0 min 0 W/m 16,1 km/h (3 Bft) 96,77 %
16.10.2019 06:04 11,4 C 10,0 C 9,4 C 95 % 1010,0 hPa 0,0 l/m 0 min 0 min 0 W/m 12,9 km/h (3 Bft) 97,87 %
16.10.2019 06:02 11,4 C 10,6 C 10,0 C 95 % 1010,0 hPa 0,0 l/m 0 min 0 min 0 W/m 12,9 km/h (3 Bft) 100,00 %
16.10.2019 06:00 11,4 C 10,6 C 10,0 C 95 % 1010,0 hPa 0,0 l/m 0 min 0 min 0 W/m 12,9 km/h (3 Bft) 100,00 %
16.10.2019 05:58 11,4 C 10,6 C 10,0 C 95 % 1010,0 hPa 0,0 l/m 0 min 0 min 0 W/m 12,9 km/h (3 Bft) 100,00 %
16.10.2019 05:56 11,4 C 10,0 C 9,4 C 95 % 1010,0 hPa 0,0 l/m 0 min 0 min 0 W/m 6,4 km/h (2 Bft) 100,00 %
16.10.2019 05:54 11,3 C 10,0 C 9,4 C 95 % 1010,0 hPa 0,0 l/m 0 min 0 min 0 W/m 6,4 km/h (2 Bft) 100,00 %
16.10.2019 05:52 11,3 C 10,0 C 9,4 C 95 % 1010,0 hPa 0,0 l/m 0 min 0 min 0 W/m 6,4 km/h (2 Bft) 100,00 %
16.10.2019 05:50 11,3 C 10,0 C 9,4 C 95 % 1010,0 hPa 0,0 l/m 0 min 0 min 0 W/m 16,1 km/h (3 Bft) 100,00 %
16.10.2019 05:48 11,3 C 10,0 C 9,4 C 95 % 1010,0 hPa 0,0 l/m 0 min 0 min 0 W/m 16,1 km/h (3 Bft) 100,00 %
16.10.2019 05:46 11,3 C 10,0 C 9,4 C 95 % 1010,0 hPa 0,0 l/m 0 min 0 min 0 W/m 6,4 km/h (2 Bft) 100,00 %
16.10.2019 05:44 11,3 C 10,0 C 9,4 C 95 % 1010,0 hPa 0,0 l/m 0 min 0 min 0 W/m 6,4 km/h (2 Bft) 100,00 %
16.10.2019 05:42 11,3 C 10,0 C 9,4 C 95 % 1010,1 hPa 0,0 l/m 0 min 0 min 0 W/m 12,9 km/h (3 Bft) 100,00 %
16.10.2019 05:40 11,3 C 10,0 C 9,4 C 95 % 1010,1 hPa 0,0 l/m 0 min 0 min 0 W/m 19,3 km/h (3 Bft) 97,87 %
16.10.2019 05:38 11,3 C 10,0 C 9,4 C 95 % 1010,1 hPa 0,0 l/m 0 min 0 min 0 W/m 12,9 km/h (3 Bft) 100,00 %
16.10.2019 05:36 11,3 C 10,0 C 9,4 C 95 % 1010,1 hPa 0,0 l/m 0 min 0 min 0 W/m 12,9 km/h (3 Bft) 100,00 %
16.10.2019 05:34 11,3 C 10,0 C 9,4 C 95 % 1010,1 hPa 0,0 l/m 0 min 0 min 0 W/m 19,3 km/h (3 Bft) 100,00 %
16.10.2019 05:32 11,3 C 10,0 C 9,4 C 95 % 1010,1 hPa 0,0 l/m 0 min 0 min 0 W/m 6,4 km/h (2 Bft) 97,83 %
16.10.2019 05:30 11,3 C 10,0 C 9,4 C 95 % 1010,1 hPa 0,0 l/m 0 min 0 min 0 W/m 12,9 km/h (3 Bft) 100,00 %
16.10.2019 05:28 11,4 C 10,0 C 9,4 C 95 % 1010,0 hPa 0,0 l/m 0 min 0 min 0 W/m 12,9 km/h (3 Bft) 100,00 %
16.10.2019 05:26 11,4 C 10,0 C 9,4 C 95 % 1010,1 hPa 0,0 l/m 0 min 0 min 0 W/m 19,3 km/h (3 Bft) 100,00 %
16.10.2019 05:24 11,4 C 10,0 C 9,4 C 95 % 1010,1 hPa 0,0 l/m 0 min 0 min 0 W/m 16,1 km/h (3 Bft) 100,00 %
16.10.2019 05:22 11,4 C 10,0 C 9,4 C 95 % 1010,0 hPa 0,0 l/m 0 min 0 min 0 W/m 19,3 km/h (3 Bft) 100,00 %
16.10.2019 05:20 11,4 C 10,0 C 9,4 C 95 % 1010,0 hPa 0,0 l/m 0 min 0 min 0 W/m 12,9 km/h (3 Bft) 100,00 %
16.10.2019 05:18 11,4 C 10,0 C 9,4 C 96 % 1010,0 hPa 0,0 l/m 0 min 0 min 0 W/m 12,9 km/h (3 Bft) 100,00 %
16.10.2019 05:16 11,5 C 10,0 C 9,4 C 95 % 1010,1 hPa 0,0 l/m 0 min 0 min 0 W/m 16,1 km/h (3 Bft) 100,00 %
16.10.2019 05:14 11,5 C 10,0 C 9,4 C 95 % 1010,1 hPa 0,0 l/m 0 min 0 min 0 W/m 19,3 km/h (3 Bft) 100,00 %
16.10.2019 05:12 11,5 C 10,0 C 9,4 C 95 % 1010,1 hPa 0,0 l/m 0 min 0 min 0 W/m 12,9 km/h (3 Bft) 100,00 %
16.10.2019 05:10 11,6 C 10,0 C 9,4 C 96 % 1010,1 hPa 0,0 l/m 0 min 0 min 0 W/m 12,9 km/h (3 Bft) 100,00 %
16.10.2019 05:08 11,6 C 10,0 C 9,4 C 96 % 1010,1 hPa 0,0 l/m 0 min 0 min 0 W/m 19,3 km/h (3 Bft) 100,00 %
16.10.2019 05:06 11,6 C 10,0 C 9,4 C 96 % 1010,1 hPa 0,0 l/m 0 min 0 min 0 W/m 19,3 km/h (3 Bft) 100,00 %
16.10.2019 05:04 11,6 C 10,0 C 9,4 C 96 % 1010,1 hPa 0,0 l/m 0 min 0 min 0 W/m 12,9 km/h (3 Bft) 95,74 %
16.10.2019 05:02 11,6 C 10,0 C 10,0 C 96 % 1010,1 hPa 0,0 l/m 0 min 0 min 0 W/m 19,3 km/h (3 Bft) 100,00 %
16.10.2019 05:00 11,6 C 10,6 C 10,0 C 96 % 1010,1 hPa 0,0 l/m 0 min 0 min 0 W/m 16,1 km/h (3 Bft) 97,87 %
16.10.2019 04:58 11,6 C 10,0 C 10,0 C 96 % 1010,2 hPa 0,0 l/m 0 min 0 min 0 W/m 19,3 km/h (3 Bft) 100,00 %
16.10.2019 04:56 11,7 C 10,0 C 10,0 C 96 % 1010,0 hPa 0,0 l/m 0 min 0 min 0 W/m 16,1 km/h (3 Bft) 97,83 %
16.10.2019 04:54 11,7 C 10,0 C 10,0 C 96 % 1010,1 hPa 0,0 l/m 0 min 0 min 0 W/m 12,9 km/h (3 Bft) 100,00 %
16.10.2019 04:52 11,7 C 10,6 C 10,0 C 96 % 1010,1 hPa 0,0 l/m 0 min 0 min 0 W/m 22,5 km/h (4 Bft) 97,87 %
16.10.2019 04:50 11,7 C 10,6 C 10,0 C 96 % 1010,0 hPa 0,0 l/m 0 min 0 min 0 W/m 16,1 km/h (3 Bft) 97,87 %
16.10.2019 04:48 11,7 C 10,6 C 10,0 C 96 % 1010,1 hPa 0,0 l/m 0 min 0 min 0 W/m 16,1 km/h (3 Bft) 95,74 %
16.10.2019 04:46 11,8 C 10,6 C 10,0 C 96 % 1010,1 hPa 0,0 l/m 0 min 0 min 0 W/m 16,1 km/h (3 Bft) 95,65 %
16.10.2019 04:44 11,8 C 10,6 C 10,0 C 96 % 1010,0 hPa 0,0 l/m 0 min 0 min 0 W/m 22,5 km/h (4 Bft) 95,74 %
16.10.2019 04:42 11,8 C 10,6 C 10,0 C 96 % 1010,0 hPa 0,0 l/m 0 min 0 min 0 W/m 19,3 km/h (3 Bft) 93,62 %
16.10.2019 04:40 11,8 C 10,6 C 10,0 C 96 % 1010,1 hPa 0,0 l/m 0 min 0 min 0 W/m 19,3 km/h (3 Bft) 95,74 %
16.10.2019 04:38 11,8 C 10,6 C 10,0 C 96 % 1010,0 hPa 0,0 l/m 0 min 0 min 0 W/m 12,9 km/h (3 Bft) 95,74 %
16.10.2019 04:36 11,8 C 10,6 C 10,0 C 97 % 1010,0 hPa 0,0 l/m 0 min 0 min 0 W/m 16,1 km/h (3 Bft) 95,74 %
16.10.2019 04:34 11,9 C 10,6 C 10,0 C 97 % 1010,0 hPa 0,0 l/m 0 min 0 min 0 W/m 12,9 km/h (3 Bft) 95,65 %
16.10.2019 04:32 11,9 C 10,6 C 10,0 C 97 % 1010,0 hPa 0,0 l/m 0 min 0 min 0 W/m 12,9 km/h (3 Bft) 91,49 %
16.10.2019 04:30 11,9 C 10,6 C 10,0 C 97 % 1010,0 hPa 0,0 l/m 0 min 0 min 0 W/m 12,9 km/h (3 Bft) 95,74 %
16.10.2019 04:28 11,9 C 10,6 C 10,0 C 97 % 1010,0 hPa 0,0 l/m 0 min 0 min 0 W/m 12,9 km/h (3 Bft) 95,74 %
16.10.2019 04:26 11,9 C 10,6 C 10,0 C 97 % 1010,0 hPa 0,0 l/m 0 min 0 min 0 W/m 16,1 km/h (3 Bft) 95,74 %
16.10.2019 04:24 11,9 C 10,6 C 10,0 C 97 % 1010,0 hPa 0,0 l/m 0 min 0 min 0 W/m 22,5 km/h (4 Bft) 93,62 %
16.10.2019 04:22 12,0 C 10,6 C 10,0 C 97 % 1010,0 hPa 0,0 l/m 0 min 0 min 0 W/m 22,5 km/h (4 Bft) 93,48 %
16.10.2019 04:20 12,0 C 10,6 C 10,0 C 97 % 1010,0 hPa 0,0 l/m 0 min 0 min 0 W/m 22,5 km/h (4 Bft) 95,74 %
16.10.2019 04:18 12,1 C 10,6 C 10,0 C 97 % 1010,0 hPa 0,0 l/m 0 min 0 min 0 W/m 12,9 km/h (3 Bft) 95,74 %
16.10.2019 04:16 12,1 C 10,6 C 10,0 C 97 % 1010,0 hPa 0,0 l/m 0 min 0 min 0 W/m 19,3 km/h (3 Bft) 93,62 %
16.10.2019 04:14 12,1 C 10,6 C 10,0 C 97 % 1010,0 hPa 0,0 l/m 0 min 0 min 0 W/m 12,9 km/h (3 Bft) 95,74 %
16.10.2019 04:12 12,1 C 10,6 C 10,6 C 97 % 1010,0 hPa 0,0 l/m 0 min 0 min 0 W/m 22,5 km/h (4 Bft) 95,74 %
16.10.2019 04:10 12,1 C 10,6 C 10,6 C 97 % 1010,0 hPa 0,0 l/m 0 min 0 min 0 W/m 16,1 km/h (3 Bft) 95,65 %
16.10.2019 04:08 12,1 C 10,6 C 10,6 C 97 % 1010,0 hPa 0,0 l/m 0 min 0 min 0 W/m 19,3 km/h (3 Bft) 95,74 %
16.10.2019 04:06 12,1 C 10,6 C 10,6 C 97 % 1010,0 hPa 0,0 l/m 0 min 0 min 0 W/m 19,3 km/h (3 Bft) 95,74 %
16.10.2019 04:04 12,1 C 10,6 C 10,6 C 97 % 1010,0 hPa 0,0 l/m 0 min 0 min 0 W/m 19,3 km/h (3 Bft) 95,74 %
16.10.2019 04:02 12,1 C 10,6 C 10,6 C 97 % 1010,0 hPa 0,0 l/m 0 min 0 min 0 W/m 6,4 km/h (2 Bft) 100,00 %
16.10.2019 04:00 12,1 C 10,6 C 10,6 C 97 % 1010,0 hPa 0,0 l/m 0 min 0 min 0 W/m 22,5 km/h (4 Bft) 93,62 %
16.10.2019 03:58 12,2 C 11,1 C 10,6 C 97 % 1010,0 hPa 0,0 l/m 0 min 0 min 0 W/m 16,1 km/h (3 Bft) 91,30 %
16.10.2019 03:56 12,2 C 10,6 C 10,6 C 97 % 1009,9 hPa 0,0 l/m 0 min 0 min 0 W/m 19,3 km/h (3 Bft) 95,74 %
16.10.2019 03:54 12,2 C 10,6 C 10,6 C 97 % 1009,9 hPa 0,0 l/m 0 min 0 min 0 W/m 16,1 km/h (3 Bft) 97,87 %
16.10.2019 03:52 12,2 C 10,6 C 10,6 C 97 % 1010,0 hPa 0,0 l/m 0 min 0 min 0 W/m 16,1 km/h (3 Bft) 95,74 %
16.10.2019 03:50 12,2 C 10,6 C 10,6 C 97 % 1009,9 hPa 0,0 l/m 0 min 0 min 0 W/m 12,9 km/h (3 Bft) 95,74 %
16.10.2019 03:48 12,2 C 10,6 C 10,6 C 98 % 1010,0 hPa 0,0 l/m 0 min 2 min 0 W/m 12,9 km/h (3 Bft) 93,62 %
16.10.2019 03:46 12,2 C 11,1 C 10,6 C 98 % 1010,0 hPa 0,0 l/m 0 min 0 min 0 W/m 16,1 km/h (3 Bft) 95,65 %
16.10.2019 03:44 12,2 C 11,1 C 10,6 C 98 % 1010,0 hPa 0,0 l/m 0 min 0 min 0 W/m 16,1 km/h (3 Bft) 97,87 %
16.10.2019 03:42 12,2 C 11,1 C 10,6 C 98 % 1010,0 hPa 0,0 l/m 0 min 0 min 0 W/m 12,9 km/h (3 Bft) 95,74 %
16.10.2019 03:40 12,2 C 11,1 C 10,6 C 98 % 1010,0 hPa 0,0 l/m 0 min 2 min 0 W/m 16,1 km/h (3 Bft) 95,74 %
16.10.2019 03:38 12,2 C 11,1 C 10,6 C 98 % 1010,0 hPa 0,0 l/m 0 min 0 min 0 W/m 19,3 km/h (3 Bft) 97,87 %
16.10.2019 03:36 12,2 C 11,1 C 10,6 C 98 % 1010,0 hPa 0,0 l/m 0 min 0 min 0 W/m 16,1 km/h (3 Bft) 97,83 %
16.10.2019 03:34 12,3 C 11,1 C 10,6 C 98 % 1010,0 hPa 0,0 l/m 0 min 2 min 0 W/m 16,1 km/h (3 Bft) 97,87 %
16.10.2019 03:32 12,3 C 11,1 C 10,6 C 98 % 1010,0 hPa 0,0 l/m 0 min 2 min 0 W/m 19,3 km/h (3 Bft) 95,74 %
16.10.2019 03:30 12,3 C 11,1 C 10,6 C 98 % 1010,0 hPa 0,0 l/m 0 min 2 min 0 W/m 19,3 km/h (3 Bft) 97,87 %
16.10.2019 03:28 12,3 C 11,1 C 10,6 C 98 % 1010,0 hPa 0,2 l/m 0 min 2 min 0 W/m 12,9 km/h (3 Bft) 97,87 %
16.10.2019 03:26 12,3 C 11,1 C 10,6 C 98 % 1010,0 hPa 0,0 l/m 0 min 2 min 0 W/m 25,7 km/h (4 Bft) 97,87 %
16.10.2019 03:24 12,3 C 11,1 C 10,6 C 98 % 1010,0 hPa 0,0 l/m 0 min 2 min 0 W/m 6,4 km/h (2 Bft) 97,83 %
16.10.2019 03:22 12,3 C 11,1 C 10,6 C 98 % 1010,0 hPa 0,0 l/m 0 min 2 min 0 W/m 16,1 km/h (3 Bft) 100,00 %
16.10.2019 03:20 12,3 C 11,1 C 10,6 C 98 % 1010,0 hPa 0,0 l/m 0 min 2 min 0 W/m 12,9 km/h (3 Bft) 97,87 %
16.10.2019 03:18 12,3 C 11,1 C 10,6 C 98 % 1010,0 hPa 0,0 l/m 0 min 2 min 0 W/m 19,3 km/h (3 Bft) 97,87 %
16.10.2019 03:16 12,3 C 11,1 C 10,6 C 98 % 1010,1 hPa 0,0 l/m 0 min 0 min 0 W/m 12,9 km/h (3 Bft) 97,87 %
16.10.2019 03:14 12,3 C 11,1 C 10,6 C 98 % 1010,0 hPa 0,0 l/m 0 min 0 min 0 W/m 16,1 km/h (3 Bft) 97,87 %
16.10.2019 03:12 12,3 C 11,1 C 10,6 C 98 % 1010,0 hPa 0,0 l/m 0 min 0 min 0 W/m 6,4 km/h (2 Bft) 100,00 %
16.10.2019 03:10 12,3 C 11,1 C 10,6 C 98 % 1010,0 hPa 0,0 l/m 0 min 0 min 0 W/m 6,4 km/h (2 Bft) 95,74 %
16.10.2019 03:08 12,3 C 11,1 C 10,6 C 98 % 1010,0 hPa 0,0 l/m 0 min 0 min 0 W/m 6,4 km/h (2 Bft) 100,00 %
16.10.2019 03:06 12,3 C 11,1 C 10,6 C 98 % 1010,0 hPa 0,0 l/m 0 min 0 min 0 W/m 12,9 km/h (3 Bft) 95,74 %
16.10.2019 03:04 12,3 C 11,1 C 10,6 C 98 % 1010,0 hPa 0,0 l/m 0 min 0 min 0 W/m 6,4 km/h (2 Bft) 100,00 %
16.10.2019 03:02 12,4 C 11,1 C 10,6 C 98 % 1010,1 hPa 0,0 l/m 0 min 0 min 0 W/m 12,9 km/h (3 Bft) 97,87 %
16.10.2019 03:00 12,4 C 11,1 C 10,6 C 98 % 1010,1 hPa 0,0 l/m 0 min 0 min 0 W/m 6,4 km/h (2 Bft) 100,00 %
16.10.2019 02:58 12,4 C 11,1 C 10,6 C 98 % 1010,1 hPa 0,0 l/m 0 min 0 min 0 W/m 6,4 km/h (2 Bft) 100,00 %
16.10.2019 02:56 12,4 C 11,1 C 10,6 C 98 % 1010,1 hPa 0,0 l/m 0 min 0 min 0 W/m 22,5 km/h (4 Bft) 100,00 %
16.10.2019 02:54 12,4 C 11,1 C 10,6 C 98 % 1010,1 hPa 0,0 l/m 0 min 0 min 0 W/m 12,9 km/h (3 Bft) 100,00 %
16.10.2019 02:52 12,4 C 11,1 C 10,6 C 98 % 1010,1 hPa 0,0 l/m 0 min 0 min 0 W/m 16,1 km/h (3 Bft) 100,00 %
16.10.2019 02:50 12,4 C 11,1 C 10,6 C 98 % 1010,1 hPa 0,0 l/m 0 min 0 min 0 W/m 12,9 km/h (3 Bft) 100,00 %
16.10.2019 02:48 12,4 C 11,1 C 10,6 C 98 % 1010,1 hPa 0,0 l/m 0 min 0 min 0 W/m 6,4 km/h (2 Bft) 100,00 %
16.10.2019 02:46 12,4 C 11,1 C 10,6 C 98 % 1010,0 hPa 0,0 l/m 0 min 0 min 0 W/m 12,9 km/h (3 Bft) 100,00 %
16.10.2019 02:44 12,4 C 11,1 C 10,6 C 98 % 1010,0 hPa 0,0 l/m 0 min 0 min 0 W/m 12,9 km/h (3 Bft) 97,87 %
16.10.2019 02:42 12,4 C 11,1 C 10,6 C 98 % 1010,0 hPa 0,0 l/m 0 min 0 min 0 W/m 16,1 km/h (3 Bft) 100,00 %
16.10.2019 02:40 12,5 C 11,1 C 10,6 C 98 % 1010,0 hPa 0,0 l/m 0 min 0 min 0 W/m 16,1 km/h (3 Bft) 100,00 %
16.10.2019 02:38 12,4 C 11,1 C 11,1 C 98 % 1010,0 hPa 0,0 l/m 0 min 0 min 0 W/m 16,1 km/h (3 Bft) 97,87 %
16.10.2019 02:36 12,5 C 11,1 C 11,1 C 98 % 1009,9 hPa 0,0 l/m 0 min 2 min 0 W/m 6,4 km/h (2 Bft) 100,00 %
16.10.2019 02:34 12,5 C 11,1 C 11,1 C 98 % 1009,9 hPa 0,0 l/m 0 min 0 min 0 W/m 6,4 km/h (2 Bft) 100,00 %
16.10.2019 02:32 12,5 C 11,1 C 11,1 C 98 % 1009,9 hPa 0,0 l/m 0 min 2 min 0 W/m 16,1 km/h (3 Bft) 100,00 %
16.10.2019 02:30 12,5 C 11,1 C 11,1 C 98 % 1009,9 hPa 0,0 l/m 0 min 2 min 0 W/m 9,7 km/h (2 Bft) 100,00 %
16.10.2019 02:28 12,5 C 11,1 C 11,1 C 98 % 1009,8 hPa 0,0 l/m 0 min 2 min 0 W/m 6,4 km/h (2 Bft) 100,00 %
16.10.2019 02:26 12,6 C 11,1 C 11,1 C 98 % 1009,9 hPa 0,0 l/m 0 min 0 min 0 W/m 12,9 km/h (3 Bft) 100,00 %
16.10.2019 02:24 12,6 C 11,7 C 11,1 C 98 % 1009,8 hPa 0,0 l/m 0 min 0 min 0 W/m 12,9 km/h (3 Bft) 100,00 %
16.10.2019 02:22 12,6 C 11,7 C 11,1 C 98 % 1009,9 hPa 0,0 l/m 0 min 0 min 0 W/m 16,1 km/h (3 Bft) 100,00 %
16.10.2019 02:20 12,6 C 11,7 C 11,1 C 98 % 1009,9 hPa 0,0 l/m 0 min 0 min 0 W/m 12,9 km/h (3 Bft) 100,00 %
16.10.2019 02:18 12,6 C 11,7 C 11,1 C 98 % 1009,9 hPa 0,0 l/m 0 min 2 min 0 W/m 6,4 km/h (2 Bft) 100,00 %
16.10.2019 02:16 12,6 C 11,7 C 11,1 C 98 % 1009,9 hPa 0,0 l/m 0 min 0 min 0 W/m 16,1 km/h (3 Bft) 100,00 %
16.10.2019 02:14 12,6 C 11,7 C 11,1 C 98 % 1009,9 hPa 0,0 l/m 0 min 0 min 0 W/m 19,3 km/h (3 Bft) 100,00 %
16.10.2019 02:12 12,6 C 11,7 C 11,1 C 98 % 1009,9 hPa 0,0 l/m 0 min 0 min 0 W/m 19,3 km/h (3 Bft) 100,00 %
16.10.2019 02:10 12,6 C 11,7 C 11,1 C 98 % 1009,9 hPa 0,0 l/m 0 min 0 min 0 W/m 19,3 km/h (3 Bft) 95,74 %
16.10.2019 02:08 12,6 C 11,7 C 11,1 C 98 % 1009,9 hPa 0,0 l/m 0 min 0 min 0 W/m 12,9 km/h (3 Bft) 100,00 %
16.10.2019 02:06 12,6 C 11,7 C 11,1 C 98 % 1009,9 hPa 0,0 l/m 0 min 0 min 0 W/m 12,9 km/h (3 Bft) 100,00 %
16.10.2019 02:04 12,6 C 11,7 C 11,1 C 98 % 1009,9 hPa 0,0 l/m 0 min 0 min 0 W/m 19,3 km/h (3 Bft) 100,00 %
16.10.2019 02:02 12,6 C 11,7 C 11,1 C 98 % 1009,9 hPa 0,0 l/m 0 min 0 min 0 W/m 6,4 km/h (2 Bft) 100,00 %
16.10.2019 02:00 12,6 C 11,7 C 11,1 C 98 % 1009,8 hPa 0,0 l/m 0 min 0 min 0 W/m 6,4 km/h (2 Bft) 100,00 %
16.10.2019 01:58 12,6 C 11,7 C 11,1 C 98 % 1009,9 hPa 0,0 l/m 0 min 0 min 0 W/m 12,9 km/h (3 Bft) 100,00 %
16.10.2019 01:56 12,6 C 11,7 C 11,1 C 98 % 1009,8 hPa 0,0 l/m 0 min 0 min 0 W/m 6,4 km/h (2 Bft) 97,87 %
16.10.2019 01:54 12,6 C 11,7 C 11,1 C 98 % 1009,8 hPa 0,0 l/m 0 min 0 min 0 W/m 12,9 km/h (3 Bft) 97,87 %
16.10.2019 01:52 12,6 C 11,7 C 11,1 C 98 % 1009,8 hPa 0,0 l/m 0 min 0 min 0 W/m 6,4 km/h (2 Bft) 95,74 %
16.10.2019 01:50 12,6 C 11,7 C 11,1 C 98 % 1009,8 hPa 0,0 l/m 0 min 0 min 0 W/m 16,1 km/h (3 Bft) 97,83 %
16.10.2019 01:48 12,7 C 11,7 C 11,1 C 98 % 1009,8 hPa 0,0 l/m 0 min 0 min 0 W/m 16,1 km/h (3 Bft) 95,74 %
16.10.2019 01:46 12,7 C 11,7 C 11,1 C 98 % 1009,8 hPa 0,0 l/m 0 min 0 min 0 W/m 6,4 km/h (2 Bft) 95,74 %
16.10.2019 01:44 12,7 C 11,7 C 11,1 C 98 % 1009,8 hPa 0,0 l/m 0 min 0 min 0 W/m 3,2 km/h (1 Bft) 97,87 %
16.10.2019 01:42 12,7 C 11,7 C 11,1 C 98 % 1009,7 hPa 0,0 l/m 0 min 0 min 0 W/m 6,4 km/h (2 Bft) 97,87 %
16.10.2019 01:40 12,7 C 11,7 C 11,1 C 98 % 1009,7 hPa 0,0 l/m 0 min 0 min 0 W/m 6,4 km/h (2 Bft) 95,74 %
16.10.2019 01:38 12,7 C 11,7 C 11,1 C 98 % 1009,7 hPa 0,0 l/m 0 min 0 min 0 W/m 16,1 km/h (3 Bft) 95,65 %
16.10.2019 01:36 12,7 C 11,7 C 11,1 C 98 % 1009,7 hPa 0,0 l/m 0 min 0 min 0 W/m 12,9 km/h (3 Bft) 97,87 %
16.10.2019 01:34 12,7 C 11,7 C 11,1 C 98 % 1009,7 hPa 0,0 l/m 0 min 0 min 0 W/m 16,1 km/h (3 Bft) 97,87 %
16.10.2019 01:32 12,7 C 11,7 C 11,1 C 98 % 1009,7 hPa 0,0 l/m 0 min 0 min 0 W/m 12,9 km/h (3 Bft) 97,87 %
16.10.2019 01:30 12,7 C 11,7 C 11,1 C 98 % 1009,6 hPa 0,0 l/m 0 min 0 min 0 W/m 3,2 km/h (1 Bft) 97,87 %
16.10.2019 01:28 12,7 C 11,7 C 11,1 C 98 % 1009,6 hPa 0,0 l/m 0 min 0 min 0 W/m 3,2 km/h (1 Bft) 97,87 %
16.10.2019 01:26 12,7 C 11,7 C 11,1 C 98 % 1009,5 hPa 0,0 l/m 0 min 0 min 0 W/m 3,2 km/h (1 Bft) 97,83 %
16.10.2019 01:24 12,7 C 11,7 C 11,1 C 98 % 1009,5 hPa 0,0 l/m 0 min 0 min 0 W/m 6,4 km/h (2 Bft) 97,87 %
16.10.2019 01:22 12,7 C 11,7 C 11,1 C 98 % 1009,5 hPa 0,0 l/m 0 min 0 min 0 W/m 3,2 km/h (1 Bft) 93,62 %
16.10.2019 01:20 12,7 C 11,7 C 11,1 C 98 % 1009,5 hPa 0,0 l/m 0 min 0 min 0 W/m 3,2 km/h (1 Bft) 93,62 %
16.10.2019 01:18 12,7 C 11,7 C 11,1 C 98 % 1009,5 hPa 0,0 l/m 0 min 0 min 0 W/m 6,4 km/h (2 Bft) 93,62 %
16.10.2019 01:16 12,7 C 11,7 C 11,1 C 98 % 1009,5 hPa 0,0 l/m 0 min 0 min 0 W/m 3,2 km/h (1 Bft) 93,62 %
16.10.2019 01:14 12,7 C 11,7 C 11,1 C 98 % 1009,5 hPa 0,0 l/m 0 min 0 min 0 W/m 3,2 km/h (1 Bft) 93,48 %
16.10.2019 01:12 12,7 C 11,7 C 11,1 C 98 % 1009,4 hPa 0,0 l/m 0 min 0 min 0 W/m 3,2 km/h (1 Bft) 91,49 %
16.10.2019 01:10 12,7 C 11,7 C 11,1 C 98 % 1009,4 hPa 0,0 l/m 0 min 0 min 0 W/m 6,4 km/h (2 Bft) 93,62 %
16.10.2019 01:08 12,7 C 11,7 C 11,1 C 98 % 1009,5 hPa 0,0 l/m 0 min 0 min 0 W/m 0,0 km/h (0 Bft) 95,74 %
16.10.2019 01:06 12,7 C 11,7 C 11,1 C 98 % 1009,4 hPa 0,0 l/m 0 min 0 min 0 W/m 6,4 km/h (2 Bft) 96,00 %
16.10.2019 01:04 12,7 C 11,7 C 11,1 C 98 % 1009,4 hPa 0,0 l/m 0 min 0 min 0 W/m 3,2 km/h (1 Bft) 93,48 %
16.10.2019 01:02 12,7 C 11,7 C 11,1 C 98 % 1009,4 hPa 0,0 l/m 0 min 0 min 0 W/m 3,2 km/h (1 Bft) 95,74 %
16.10.2019 01:00 12,7 C 11,7 C 11,1 C 98 % 1009,4 hPa 0,0 l/m 0 min 0 min 0 W/m 16,1 km/h (3 Bft) 93,62 %
16.10.2019 00:58 12,7 C 11,7 C 11,1 C 98 % 1009,4 hPa 0,0 l/m 0 min 0 min 0 W/m 6,4 km/h (2 Bft) 95,74 %
16.10.2019 00:56 12,8 C 11,7 C 11,1 C 98 % 1009,4 hPa 0,0 l/m 0 min 0 min 0 W/m 3,2 km/h (1 Bft) 93,62 %
16.10.2019 00:54 12,7 C 11,7 C 11,1 C 98 % 1009,4 hPa 0,0 l/m 0 min 0 min 0 W/m 3,2 km/h (1 Bft) 93,62 %
16.10.2019 00:52 12,8 C 11,7 C 11,1 C 98 % 1009,4 hPa 0,0 l/m 0 min 0 min 0 W/m 9,7 km/h (2 Bft) 95,65 %
16.10.2019 00:50 12,8 C 11,7 C 11,1 C 98 % 1009,3 hPa 0,0 l/m 0 min 0 min 0 W/m 6,4 km/h (2 Bft) 95,74 %
16.10.2019 00:48 12,8 C 11,7 C 11,1 C 98 % 1009,3 hPa 0,0 l/m 0 min 0 min 0 W/m 9,7 km/h (2 Bft) 97,87 %
16.10.2019 00:46 12,8 C 11,7 C 11,1 C 98 % 1009,3 hPa 0,0 l/m 0 min 0 min 0 W/m 0,0 km/h (0 Bft) 95,74 %
16.10.2019 00:44 12,8 C 11,7 C 11,1 C 98 % 1009,2 hPa 0,0 l/m 0 min 0 min 0 W/m 6,4 km/h (2 Bft) 95,74 %
16.10.2019 00:42 12,8 C 11,7 C 11,1 C 98 % 1009,2 hPa 0,0 l/m 0 min 2 min 0 W/m 6,4 km/h (2 Bft) 95,74 %
16.10.2019 00:40 12,8 C 11,7 C 11,1 C 98 % 1009,3 hPa 0,0 l/m 0 min 0 min 0 W/m 3,2 km/h (1 Bft) 93,48 %
16.10.2019 00:38 12,8 C 11,7 C 11,1 C 98 % 1009,3 hPa 0,0 l/m 0 min 2 min 0 W/m 0,0 km/h (0 Bft) 97,87 %
16.10.2019 00:36 12,7 C 11,7 C 11,1 C 98 % 1009,3 hPa 0,0 l/m 0 min 2 min 0 W/m 3,2 km/h (1 Bft) 97,87 %
16.10.2019 00:34 12,7 C 11,7 C 11,1 C 98 % 1009,3 hPa 0,0 l/m 0 min 2 min 0 W/m 6,4 km/h (2 Bft) 97,87 %
16.10.2019 00:32 12,7 C 11,7 C 11,1 C 98 % 1009,3 hPa 0,0 l/m 0 min 0 min 0 W/m 12,9 km/h (3 Bft) 95,74 %
16.10.2019 00:30 12,7 C 11,7 C 11,1 C 98 % 1009,3 hPa 0,0 l/m 0 min 2 min 0 W/m 16,1 km/h (3 Bft) 97,87 %
16.10.2019 00:28 12,7 C 11,7 C 11,1 C 98 % 1009,3 hPa 0,0 l/m 0 min 0 min 0 W/m 3,2 km/h (1 Bft) 96,23 %
16.10.2019 00:26 12,7 C 11,7 C 11,1 C 98 % 1009,3 hPa 0,0 l/m 0 min 0 min 0 W/m 3,2 km/h (1 Bft) 100,00 %
16.10.2019 00:24 12,7 C 11,7 C 11,1 C 98 % 1009,3 hPa 0,0 l/m 0 min 0 min 0 W/m 3,2 km/h (1 Bft) 100,00 %
16.10.2019 00:22 12,7 C 11,7 C 11,1 C 98 % 1009,3 hPa 0,0 l/m 0 min 0 min 0 W/m 6,4 km/h (2 Bft) 97,87 %
16.10.2019 00:20 12,7 C 11,7 C 11,1 C 98 % 1009,3 hPa 0,0 l/m 0 min 0 min 0 W/m 12,9 km/h (3 Bft) 100,00 %
16.10.2019 00:18 12,7 C 11,7 C 11,1 C 98 % 1009,3 hPa 0,0 l/m 0 min 2 min 0 W/m 16,1 km/h (3 Bft) 100,00 %
16.10.2019 00:16 12,6 C 11,7 C 11,1 C 98 % 1009,3 hPa 0,0 l/m 0 min 2 min 0 W/m 3,2 km/h (1 Bft) 100,00 %
16.10.2019 00:14 12,6 C 11,1 C 11,1 C 98 % 1009,3 hPa 0,0 l/m 0 min 2 min 0 W/m 3,2 km/h (1 Bft) 100,00 %
16.10.2019 00:12 12,6 C 11,1 C 11,1 C 98 % 1009,3 hPa 0,0 l/m 0 min 2 min 0 W/m 6,4 km/h (2 Bft) 100,00 %
16.10.2019 00:10 12,6 C 11,1 C 11,1 C 98 % 1009,4 hPa 0,0 l/m 0 min 2 min 0 W/m 6,4 km/h (2 Bft) 100,00 %
16.10.2019 00:08 12,6 C 11,1 C 11,1 C 98 % 1009,3 hPa 0,0 l/m 0 min 4 min 0 W/m 3,2 km/h (1 Bft) 100,00 %
16.10.2019 00:04 12,7 C 11,1 C 11,1 C 98 % 1009,3 hPa 0,0 l/m 0 min 2 min 0 W/m 3,2 km/h (1 Bft) 97,83 %
16.10.2019 00:02 12,7 C 11,1 C 11,1 C 98 % 1009,3 hPa 0,0 l/m 0 min 2 min 0 W/m 3,2 km/h (1 Bft) 100,00 %
16.10.2019 00:00 12,8 C 11,1 C 11,1 C 98 % 1009,3 hPa 0,0 l/m 0 min 2 min 0 W/m 16,1 km/h (3 Bft) 100,00 %
15.10.2019 23:58 12,8 C 11,1 C 11,1 C 98 % 1009,2 hPa 0,0 l/m 0 min 0 min 0 W/m 6,4 km/h (2 Bft) 100,00 %
15.10.2019 23:56 12,8 C 11,1 C 11,1 C 98 % 1009,2 hPa 0,0 l/m 0 min 0 min 0 W/m 3,2 km/h (1 Bft) 100,00 %
15.10.2019 23:54 12,9 C 11,7 C 11,1 C 98 % 1009,1 hPa 0,0 l/m 0 min 0 min 0 W/m 0,0 km/h (0 Bft) 100,00 %
15.10.2019 23:52 12,9 C 11,7 C 11,1 C 98 % 1009,1 hPa 0,0 l/m 0 min 0 min 0 W/m 3,2 km/h (1 Bft) 100,00 %
15.10.2019 23:50 13,0 C 11,7 C 11,1 C 98 % 1009,0 hPa 0,0 l/m 0 min 0 min 0 W/m 9,7 km/h (2 Bft) 100,00 %
15.10.2019 23:48 13,1 C 11,7 C 11,1 C 98 % 1009,0 hPa 0,0 l/m 0 min 0 min 0 W/m 9,7 km/h (2 Bft) 100,00 %
15.10.2019 23:46 13,1 C 11,7 C 11,7 C 98 % 1008,9 hPa 0,0 l/m 0 min 2 min 0 W/m 6,4 km/h (2 Bft) 100,00 %
15.10.2019 23:44 13,2 C 11,7 C 11,7 C 98 % 1009,0 hPa 0,0 l/m 0 min 2 min 0 W/m 12,9 km/h (3 Bft) 100,00 %
15.10.2019 23:42 13,2 C 11,7 C 11,7 C 98 % 1009,1 hPa 0,0 l/m 0 min 2 min 0 W/m 3,2 km/h (1 Bft) 100,00 %
15.10.2019 23:40 13,2 C 11,7 C 11,7 C 98 % 1009,1 hPa 0,0 l/m 0 min 2 min 0 W/m 6,4 km/h (2 Bft) 100,00 %
15.10.2019 23:38 13,2 C 11,7 C 11,7 C 98 % 1009,2 hPa 0,0 l/m 0 min 2 min 0 W/m 12,9 km/h (3 Bft) 100,00 %
15.10.2019 23:36 13,2 C 11,7 C 11,7 C 98 % 1009,2 hPa 0,0 l/m 0 min 2 min 0 W/m 6,4 km/h (2 Bft) 100,00 %
15.10.2019 23:34 13,2 C 11,7 C 11,7 C 98 % 1009,3 hPa 0,0 l/m 0 min 2 min 0 W/m 16,1 km/h (3 Bft) 100,00 %
15.10.2019 23:32 13,2 C 11,7 C 11,7 C 98 % 1009,2 hPa 0,0 l/m 0 min 2 min 0 W/m 12,9 km/h (3 Bft) 100,00 %
15.10.2019 23:30 13,2 C 12,2 C 11,7 C 98 % 1009,2 hPa 0,0 l/m 0 min 2 min 0 W/m 12,9 km/h (3 Bft) 100,00 %
15.10.2019 23:28 13,3 C 12,2 C 11,7 C 98 % 1009,3 hPa 0,0 l/m 0 min 2 min 0 W/m 12,9 km/h (3 Bft) 100,00 %
15.10.2019 23:26 13,3 C 12,2 C 11,7 C 98 % 1009,3 hPa 0,2 l/m 0 min 2 min 0 W/m 22,5 km/h (4 Bft) 97,87 %
15.10.2019 23:24 13,3 C 12,2 C 11,7 C 98 % 1009,3 hPa 0,0 l/m 0 min 2 min 0 W/m 3,2 km/h (1 Bft) 100,00 %
15.10.2019 23:22 13,3 C 12,2 C 11,7 C 98 % 1009,2 hPa 0,0 l/m 0 min 2 min 0 W/m 6,4 km/h (2 Bft) 100,00 %
15.10.2019 23:20 13,3 C 12,2 C 11,7 C 98 % 1009,2 hPa 0,0 l/m 0 min 2 min 0 W/m 6,4 km/h (2 Bft) 100,00 %
15.10.2019 23:18 13,3 C 12,2 C 11,7 C 98 % 1009,2 hPa 0,0 l/m 0 min 2 min 0 W/m 3,2 km/h (1 Bft) 100,00 %
15.10.2019 23:16 13,3 C 12,2 C 11,7 C 98 % 1009,2 hPa 0,0 l/m 0 min 2 min 0 W/m 9,7 km/h (2 Bft) 100,00 %
15.10.2019 23:14 13,3 C 12,2 C 11,7 C 98 % 1009,2 hPa 0,0 l/m 0 min 2 min 0 W/m 12,9 km/h (3 Bft) 100,00 %
15.10.2019 23:12 13,3 C 12,2 C 11,7 C 98 % 1009,2 hPa 0,0 l/m 0 min 2 min 0 W/m 9,7 km/h (2 Bft) 100,00 %
15.10.2019 23:10 13,3 C 12,2 C 11,7 C 98 % 1009,2 hPa 0,0 l/m 0 min 2 min 0 W/m 16,1 km/h (3 Bft) 100,00 %
15.10.2019 23:08 13,3 C 12,2 C 11,7 C 98 % 1009,3 hPa 0,0 l/m 0 min 2 min 0 W/m 16,1 km/h (3 Bft) 100,00 %
15.10.2019 23:06 13,3 C 12,2 C 11,7 C 98 % 1009,3 hPa 0,2 l/m 0 min 2 min 0 W/m 16,1 km/h (3 Bft) 100,00 %
15.10.2019 23:04 13,3 C 12,2 C 11,7 C 98 % 1009,3 hPa 0,0 l/m 0 min 2 min 0 W/m 6,4 km/h (2 Bft) 100,00 %
15.10.2019 23:02 13,4 C 12,2 C 11,7 C 98 % 1009,3 hPa 0,0 l/m 0 min 2 min 0 W/m 12,9 km/h (3 Bft) 97,87 %
15.10.2019 23:00 13,3 C 12,2 C 11,7 C 98 % 1009,2 hPa 0,0 l/m 0 min 2 min 0 W/m 9,7 km/h (2 Bft) 95,74 %
15.10.2019 22:58 13,4 C 12,2 C 11,7 C 98 % 1009,2 hPa 0,0 l/m 0 min 2 min 0 W/m 6,4 km/h (2 Bft) 97,87 %
15.10.2019 22:56 13,4 C 12,2 C 11,7 C 98 % 1009,2 hPa 0,0 l/m 0 min 2 min 0 W/m 12,9 km/h (3 Bft) 95,74 %
15.10.2019 22:54 13,4 C 12,2 C 11,7 C 98 % 1009,1 hPa 0,0 l/m 0 min 2 min 0 W/m 6,4 km/h (2 Bft) 97,83 %
15.10.2019 22:52 13,4 C 12,2 C 11,7 C 98 % 1009,1 hPa 0,0 l/m 0 min 2 min 0 W/m 6,4 km/h (2 Bft) 97,87 %
15.10.2019 22:50 13,4 C 12,2 C 11,7 C 98 % 1009,2 hPa 0,0 l/m 0 min 2 min 0 W/m 6,4 km/h (2 Bft) 97,87 %
15.10.2019 22:48 13,4 C 12,2 C 11,7 C 98 % 1009,2 hPa 0,0 l/m 0 min 2 min 0 W/m 12,9 km/h (3 Bft) 97,87 %
15.10.2019 22:46 13,4 C 12,2 C 11,7 C 98 % 1009,2 hPa 0,0 l/m 0 min 2 min 0 W/m 6,4 km/h (2 Bft) 97,87 %
15.10.2019 22:44 13,4 C 12,2 C 11,7 C 98 % 1009,2 hPa 0,0 l/m 0 min 2 min 0 W/m 3,2 km/h (1 Bft) 97,87 %
15.10.2019 22:42 13,4 C 12,2 C 11,7 C 98 % 1009,1 hPa 0,0 l/m 0 min 2 min 0 W/m 3,2 km/h (1 Bft) 95,65 %
15.10.2019 22:40 13,4 C 12,2 C 11,7 C 98 % 1009,1 hPa 0,2 l/m 0 min 2 min 0 W/m 16,1 km/h (3 Bft) 95,74 %
15.10.2019 22:38 13,4 C 12,2 C 11,7 C 98 % 1009,1 hPa 0,0 l/m 0 min 2 min 0 W/m 3,2 km/h (1 Bft) 95,74 %
15.10.2019 22:36 13,4 C 12,2 C 11,7 C 98 % 1009,1 hPa 0,0 l/m 0 min 2 min 0 W/m 3,2 km/h (1 Bft) 93,62 %
15.10.2019 22:34 13,4 C 12,2 C 11,7 C 98 % 1009,1 hPa 0,0 l/m 0 min 2 min 0 W/m 6,4 km/h (2 Bft) 95,74 %
15.10.2019 22:32 13,4 C 12,2 C 11,7 C 98 % 1009,1 hPa 0,0 l/m 0 min 2 min 0 W/m 6,4 km/h (2 Bft) 95,65 %
15.10.2019 22:30 13,4 C 12,2 C 11,7 C 98 % 1009,0 hPa 0,0 l/m 0 min 2 min 0 W/m 6,4 km/h (2 Bft) 95,74 %
15.10.2019 22:28 13,4 C 12,2 C 11,7 C 98 % 1009,0 hPa 0,0 l/m 0 min 2 min 0 W/m 6,4 km/h (2 Bft) 93,62 %
15.10.2019 22:26 13,5 C 12,2 C 11,7 C 97 % 1009,0 hPa 0,0 l/m 0 min 2 min 0 W/m 3,2 km/h (1 Bft) 93,62 %
15.10.2019 22:24 13,5 C 12,2 C 11,7 C 97 % 1009,0 hPa 0,0 l/m 0 min 2 min 0 W/m 6,4 km/h (2 Bft) 93,62 %
15.10.2019 22:22 13,5 C 12,2 C 11,7 C 97 % 1008,9 hPa 0,0 l/m 0 min 2 min 0 W/m 3,2 km/h (1 Bft) 95,74 %
15.10.2019 22:20 13,5 C 12,2 C 11,7 C 97 % 1008,9 hPa 0,0 l/m 0 min 2 min 0 W/m 6,4 km/h (2 Bft) 95,65 %
15.10.2019 22:18 13,5 C 12,2 C 11,7 C 97 % 1008,9 hPa 0,2 l/m 0 min 2 min 0 W/m 3,2 km/h (1 Bft) 93,62 %
15.10.2019 22:16 13,5 C 12,2 C 11,7 C 97 % 1008,9 hPa 0,0 l/m 0 min 2 min 0 W/m 3,2 km/h (1 Bft) 95,74 %
15.10.2019 22:14 13,6 C 12,2 C 11,7 C 97 % 1008,8 hPa 0,0 l/m 0 min 2 min 0 W/m 6,4 km/h (2 Bft) 97,87 %
15.10.2019 22:12 13,6 C 12,2 C 11,7 C 97 % 1008,8 hPa 0,0 l/m 0 min 2 min 0 W/m 3,2 km/h (1 Bft) 97,87 %
15.10.2019 22:10 13,6 C 12,2 C 12,2 C 97 % 1008,8 hPa 0,0 l/m 0 min 2 min 0 W/m 6,4 km/h (2 Bft) 97,87 %
15.10.2019 22:08 13,6 C 12,2 C 11,7 C 97 % 1008,8 hPa 0,0 l/m 0 min 2 min 0 W/m 0,0 km/h (0 Bft) 93,48 %
15.10.2019 22:06 13,6 C 12,2 C 11,7 C 97 % 1008,8 hPa 0,0 l/m 0 min 2 min 0 W/m 3,2 km/h (1 Bft) 97,87 %
15.10.2019 22:04 13,6 C 12,2 C 11,7 C 97 % 1008,8 hPa 0,0 l/m 0 min 2 min 0 W/m 3,2 km/h (1 Bft) 97,87 %
15.10.2019 22:02 13,6 C 12,2 C 11,7 C 97 % 1008,7 hPa 0,0 l/m 0 min 2 min 0 W/m 3,2 km/h (1 Bft) 97,87 %
15.10.2019 22:00 13,6 C 12,2 C 12,2 C 97 % 1008,7 hPa 0,0 l/m 0 min 2 min 0 W/m 3,2 km/h (1 Bft) 97,87 %
15.10.2019 21:58 13,6 C 12,2 C 11,7 C 97 % 1008,7 hPa 0,2 l/m 0 min 2 min 0 W/m 3,2 km/h (1 Bft) 95,74 %
15.10.2019 21:56 13,6 C 12,2 C 12,2 C 97 % 1008,7 hPa 0,0 l/m 0 min 2 min 0 W/m 3,2 km/h (1 Bft) 95,65 %
15.10.2019 21:54 13,6 C 12,2 C 12,2 C 97 % 1008,7 hPa 0,0 l/m 0 min 2 min 0 W/m 0,0 km/h (0 Bft) 95,74 %
15.10.2019 21:52 13,7 C 12,2 C 12,2 C 97 % 1008,7 hPa 0,0 l/m 0 min 2 min 0 W/m 3,2 km/h (1 Bft) 95,74 %
15.10.2019 21:50 13,7 C 12,2 C 12,2 C 97 % 1008,6 hPa 0,2 l/m 0 min 2 min 0 W/m 6,4 km/h (2 Bft) 97,87 %
15.10.2019 21:48 13,7 C 12,2 C 12,2 C 97 % 1008,7 hPa 0,0 l/m 0 min 2 min 0 W/m 3,2 km/h (1 Bft) 97,87 %
15.10.2019 21:46 13,7 C 12,2 C 11,7 C 97 % 1008,7 hPa 0,0 l/m 0 min 2 min 0 W/m 6,4 km/h (2 Bft) 100,00 %
15.10.2019 21:44 13,7 C 12,2 C 12,2 C 97 % 1008,7 hPa 0,0 l/m 0 min 2 min 0 W/m 6,4 km/h (2 Bft) 95,65 %
15.10.2019 21:42 13,7 C 12,2 C 12,2 C 97 % 1008,7 hPa 0,0 l/m 0 min 2 min 0 W/m 3,2 km/h (1 Bft) 97,87 %
15.10.2019 21:40 13,7 C 12,2 C 12,2 C 97 % 1008,7 hPa 0,0 l/m 0 min 2 min 0 W/m 3,2 km/h (1 Bft) 97,87 %
15.10.2019 21:38 13,7 C 12,2 C 12,2 C 97 % 1008,6 hPa 0,2 l/m 0 min 2 min 0 W/m 6,4 km/h (2 Bft) 97,87 %
15.10.2019 21:36 13,7 C 12,2 C 12,2 C 97 % 1008,6 hPa 0,0 l/m 0 min 2 min 0 W/m 6,4 km/h (2 Bft) 97,87 %
15.10.2019 21:34 13,7 C 12,2 C 12,2 C 97 % 1008,6 hPa 0,2 l/m 0 min 2 min 0 W/m 3,2 km/h (1 Bft) 97,87 %
15.10.2019 21:32 13,7 C 12,2 C 12,2 C 97 % 1008,6 hPa 0,0 l/m 0 min 2 min 0 W/m 3,2 km/h (1 Bft) 97,83 %
15.10.2019 21:30 13,8 C 12,2 C 12,2 C 97 % 1008,6 hPa 0,0 l/m 0 min 2 min 0 W/m 3,2 km/h (1 Bft) 97,87 %
15.10.2019 21:28 13,8 C 12,2 C 12,2 C 97 % 1008,5 hPa 0,2 l/m 0 min 2 min 0 W/m 3,2 km/h (1 Bft) 97,87 %
15.10.2019 21:26 13,8 C 12,2 C 12,2 C 97 % 1008,5 hPa 0,0 l/m 0 min 2 min 0 W/m 3,2 km/h (1 Bft) 97,87 %
15.10.2019 21:24 13,8 C 12,2 C 12,2 C 97 % 1008,5 hPa 0,2 l/m 0 min 2 min 0 W/m 3,2 km/h (1 Bft) 97,87 %
15.10.2019 21:22 13,8 C 12,2 C 12,2 C 97 % 1008,5 hPa 0,0 l/m 0 min 2 min 0 W/m 6,4 km/h (2 Bft) 97,83 %
15.10.2019 21:20 13,8 C 12,2 C 12,2 C 97 % 1008,5 hPa 0,0 l/m 0 min 2 min 0 W/m 0,0 km/h (0 Bft) 97,87 %
15.10.2019 21:18 13,8 C 12,2 C 12,2 C 97 % 1008,5 hPa 0,0 l/m 0 min 2 min 0 W/m 6,4 km/h (2 Bft) 97,87 %
15.10.2019 21:16 13,8 C 12,2 C 12,2 C 96 % 1008,5 hPa 0,0 l/m 0 min 2 min 0 W/m 3,2 km/h (1 Bft) 95,74 %
15.10.2019 21:14 13,8 C 12,2 C 12,2 C 96 % 1008,4 hPa 0,0 l/m 0 min 2 min 0 W/m 3,2 km/h (1 Bft) 97,87 %
15.10.2019 21:12 13,8 C 12,2 C 12,2 C 96 % 1008,4 hPa 0,2 l/m 0 min 2 min 0 W/m 9,7 km/h (2 Bft) 97,87 %
15.10.2019 21:10 13,8 C 12,2 C 12,2 C 96 % 1008,4 hPa 0,0 l/m 0 min 2 min 0 W/m 3,2 km/h (1 Bft) 97,83 %
15.10.2019 21:08 13,8 C 12,2 C 12,2 C 96 % 1008,4 hPa 0,2 l/m 0 min 2 min 0 W/m 3,2 km/h (1 Bft) 97,87 %
15.10.2019 21:06 13,8 C 12,2 C 12,2 C 96 % 1008,4 hPa 0,0 l/m 0 min 2 min 0 W/m 3,2 km/h (1 Bft) 95,74 %
15.10.2019 21:04 13,8 C 12,2 C 12,2 C 96 % 1008,4 hPa 0,0 l/m 0 min 2 min 0 W/m 3,2 km/h (1 Bft) 97,87 %
15.10.2019 21:02 13,8 C 12,2 C 12,2 C 96 % 1008,3 hPa 0,0 l/m 0 min 2 min 0 W/m 3,2 km/h (1 Bft) 97,87 %
15.10.2019 21:00 13,8 C 12,2 C 12,2 C 96 % 1008,3 hPa 0,0 l/m 0 min 2 min 0 W/m 3,2 km/h (1 Bft) 97,87 %
15.10.2019 20:58 13,8 C 12,2 C 12,2 C 96 % 1008,3 hPa 0,0 l/m 0 min 2 min 0 W/m 3,2 km/h (1 Bft) 100,00 %
15.10.2019 20:56 13,8 C 12,2 C 12,2 C 96 % 1008,3 hPa 0,0 l/m 0 min 2 min 0 W/m 6,4 km/h (2 Bft) 100,00 %
15.10.2019 20:54 13,8 C 12,2 C 12,2 C 96 % 1008,3 hPa 0,0 l/m 0 min 2 min 0 W/m 0,0 km/h (0 Bft) 100,00 %
15.10.2019 20:52 13,8 C 12,2 C 12,2 C 96 % 1008,3 hPa 0,2 l/m 0 min 2 min 0 W/m 0,0 km/h (0 Bft) 100,00 %
15.10.2019 20:50 13,8 C 12,2 C 12,2 C 96 % 1008,3 hPa 0,0 l/m 0 min 2 min 0 W/m 0,0 km/h (0 Bft) 100,00 %
15.10.2019 20:48 13,8 C 12,2 C 12,2 C 96 % 1008,2 hPa 0,0 l/m 0 min 2 min 0 W/m 3,2 km/h (1 Bft) 100,00 %
15.10.2019 20:46 13,8 C 12,2 C 12,2 C 96 % 1008,2 hPa 0,0 l/m 0 min 2 min 0 W/m 0,0 km/h (0 Bft) 100,00 %
15.10.2019 20:44 13,8 C 12,2 C 12,2 C 96 % 1008,2 hPa 0,0 l/m 0 min 2 min 0 W/m 0,0 km/h (0 Bft) 100,00 %
15.10.2019 20:42 13,8 C 12,2 C 12,2 C 96 % 1008,3 hPa 0,2 l/m 0 min 2 min 0 W/m 0,0 km/h (0 Bft) 100,00 %
15.10.2019 20:40 13,8 C 12,2 C 12,2 C 96 % 1008,2 hPa 0,0 l/m 0 min 2 min 0 W/m 3,2 km/h (1 Bft) 100,00 %
15.10.2019 20:38 13,8 C 12,2 C 12,2 C 96 % 1008,2 hPa 0,0 l/m 0 min 2 min 0 W/m 3,2 km/h (1 Bft) 100,00 %
15.10.2019 20:36 13,8 C 12,2 C 12,2 C 96 % 1008,2 hPa 0,0 l/m 0 min 2 min 0 W/m 3,2 km/h (1 Bft) 97,87 %
15.10.2019 20:34 13,8 C 12,2 C 12,2 C 96 % 1008,2 hPa 0,0 l/m 0 min 2 min 0 W/m 3,2 km/h (1 Bft) 100,00 %
15.10.2019 20:32 13,8 C 12,2 C 12,2 C 96 % 1008,2 hPa 0,0 l/m 0 min 2 min 0 W/m 3,2 km/h (1 Bft) 100,00 %
15.10.2019 20:30 13,8 C 12,2 C 12,2 C 96 % 1008,1 hPa 0,0 l/m 0 min 2 min 0 W/m 0,0 km/h (0 Bft) 100,00 %
15.10.2019 20:28 13,8 C 12,2 C 12,2 C 96 % 1008,1 hPa 0,0 l/m 0 min 2 min 0 W/m 3,2 km/h (1 Bft) 100,00 %
15.10.2019 20:26 13,8 C 12,2 C 12,2 C 96 % 1008,0 hPa 0,0 l/m 0 min 2 min 0 W/m 0,0 km/h (0 Bft) 100,00 %
15.10.2019 20:24 13,8 C 12,2 C 12,2 C 96 % 1008,0 hPa 0,0 l/m 0 min 2 min 0 W/m 3,2 km/h (1 Bft) 100,00 %
15.10.2019 20:22 13,9 C 12,2 C 12,2 C 95 % 1008,0 hPa 0,0 l/m 0 min 2 min 0 W/m 0,0 km/h (0 Bft) 97,83 %
15.10.2019 20:20 13,9 C 12,2 C 12,2 C 95 % 1008,1 hPa 0,0 l/m 0 min 2 min 0 W/m 0,0 km/h (0 Bft) 100,00 %
15.10.2019 20:18 13,9 C 12,2 C 12,2 C 95 % 1008,0 hPa 0,0 l/m 0 min 2 min 0 W/m 0,0 km/h (0 Bft) 100,00 %
15.10.2019 20:16 13,9 C 12,2 C 12,2 C 95 % 1008,0 hPa 0,0 l/m 0 min 2 min 0 W/m 0,0 km/h (0 Bft) 97,87 %
15.10.2019 20:14 13,9 C 12,2 C 12,2 C 95 % 1008,0 hPa 0,0 l/m 0 min 2 min 0 W/m 0,0 km/h (0 Bft) 100,00 %
15.10.2019 20:12 13,9 C 12,2 C 12,2 C 95 % 1008,0 hPa 0,0 l/m 0 min 0 min 0 W/m 0,0 km/h (0 Bft) 97,87 %
15.10.2019 20:10 13,9 C 12,2 C 12,2 C 95 % 1007,9 hPa 0,0 l/m 0 min 0 min 0 W/m 0,0 km/h (0 Bft) 97,83 %
15.10.2019 20:08 13,9 C 12,2 C 12,2 C 95 % 1007,9 hPa 0,0 l/m 0 min 0 min 0 W/m 0,0 km/h (0 Bft) 100,00 %
15.10.2019 20:06 13,9 C 12,2 C 12,2 C 95 % 1007,9 hPa 0,2 l/m 0 min 2 min 0 W/m 0,0 km/h (0 Bft) 95,74 %
15.10.2019 20:04 13,9 C 12,2 C 12,2 C 95 % 1007,9 hPa 0,0 l/m 0 min 2 min 0 W/m 0,0 km/h (0 Bft) 95,74 %
15.10.2019 20:02 13,9 C 12,2 C 12,2 C 95 % 1007,9 hPa 0,0 l/m 0 min 0 min 0 W/m 3,2 km/h (1 Bft) 95,74 %
15.10.2019 20:00 13,9 C 12,2 C 12,2 C 95 % 1007,8 hPa 0,0 l/m 0 min 0 min 0 W/m 0,0 km/h (0 Bft) 97,87 %
15.10.2019 19:58 14,0 C 12,2 C 12,2 C 95 % 1007,7 hPa 0,0 l/m 0 min 0 min 0 W/m 0,0 km/h (0 Bft) 95,65 %
15.10.2019 19:56 14,0 C 12,2 C 12,2 C 95 % 1007,7 hPa 0,0 l/m 0 min 0 min 0 W/m 0,0 km/h (0 Bft) 95,74 %
15.10.2019 19:53 14,1 C 12,2 C 12,2 C 95 % 1007,8 hPa 0,0 l/m 0 min 0 min 0 W/m 0,0 km/h (0 Bft) 95,74 %
15.10.2019 19:52 14,1 C 12,2 C 12,2 C 95 % 1007,8 hPa 0,0 l/m 0 min 0 min 0 W/m 0,0 km/h (0 Bft) 95,74 %
15.10.2019 19:50 14,1 C 12,2 C 12,2 C 95 % 1007,8 hPa 0,0 l/m 0 min 0 min 0 W/m 3,2 km/h (1 Bft) 95,74 %
15.10.2019 19:48 14,1 C 12,2 C 12,2 C 95 % 1007,8 hPa 0,0 l/m 0 min 2 min 0 W/m 0,0 km/h (0 Bft) 91,30 %
15.10.2019 19:46 14,1 C 12,2 C 12,2 C 95 % 1007,7 hPa 0,0 l/m 0 min 0 min 0 W/m 0,0 km/h (0 Bft) 95,74 %
15.10.2019 19:44 14,1 C 12,2 C 12,2 C 95 % 1007,8 hPa 0,0 l/m 0 min 2 min 0 W/m 3,2 km/h (1 Bft) 95,74 %
15.10.2019 19:42 14,1 C 12,2 C 12,2 C 95 % 1007,8 hPa 0,0 l/m 0 min 0 min 0 W/m 3,2 km/h (1 Bft) 93,62 %
15.10.2019 19:40 14,2 C 12,2 C 12,2 C 95 % 1007,7 hPa 0,0 l/m 0 min 2 min 0 W/m 3,2 km/h (1 Bft) 95,74 %
15.10.2019 19:38 14,2 C 12,2 C 12,2 C 94 % 1007,7 hPa 0,0 l/m 0 min 0 min 0 W/m 0,0 km/h (0 Bft) 95,74 %
15.10.2019 19:36 14,2 C 12,2 C 12,2 C 94 % 1007,7 hPa 0,0 l/m 0 min 2 min 0 W/m 3,2 km/h (1 Bft) 95,65 %
15.10.2019 19:34 14,2 C 12,2 C 12,2 C 94 % 1007,7 hPa 0,0 l/m 0 min 2 min 0 W/m 0,0 km/h (0 Bft) 93,62 %
15.10.2019 19:32 14,3 C 12,2 C 12,2 C 94 % 1007,7 hPa 0,0 l/m 0 min 2 min 0 W/m 3,2 km/h (1 Bft) 93,62 %
15.10.2019 19:30 14,3 C 12,2 C 12,2 C 94 % 1007,7 hPa 0,0 l/m 0 min 2 min 0 W/m 0,0 km/h (0 Bft) 93,62 %
15.10.2019 19:28 14,3 C 12,2 C 12,2 C 94 % 1007,7 hPa 0,0 l/m 0 min 2 min 0 W/m 3,2 km/h (1 Bft) 95,74 %
15.10.2019 19:26 14,3 C 12,2 C 12,2 C 94 % 1007,6 hPa 0,2 l/m 0 min 2 min 0 W/m 3,2 km/h (1 Bft) 97,87 %
15.10.2019 19:24 14,3 C 12,2 C 12,2 C 94 % 1007,6 hPa 0,0 l/m 0 min 2 min 0 W/m 0,0 km/h (0 Bft) 97,83 %
15.10.2019 19:22 14,3 C 12,2 C 12,2 C 94 % 1007,6 hPa 0,0 l/m 0 min 2 min 0 W/m 0,0 km/h (0 Bft) 95,74 %
15.10.2019 19:20 14,3 C 12,2 C 12,2 C 94 % 1007,6 hPa 0,0 l/m 0 min 2 min 0 W/m 0,0 km/h (0 Bft) 97,87 %
15.10.2019 19:18 14,3 C 12,2 C 12,2 C 94 % 1007,7 hPa 0,0 l/m 0 min 2 min 0 W/m 0,0 km/h (0 Bft) 97,87 %
15.10.2019 19:16 14,3 C 12,2 C 12,2 C 94 % 1007,6 hPa 0,2 l/m 0 min 2 min 0 W/m 3,2 km/h (1 Bft) 97,87 %
15.10.2019 19:14 14,3 C 12,2 C 12,2 C 94 % 1007,6 hPa 0,0 l/m 0 min 2 min 0 W/m 0,0 km/h (0 Bft) 95,74 %
15.10.2019 19:12 14,4 C 12,2 C 12,2 C 94 % 1007,6 hPa 0,0 l/m 0 min 2 min 0 W/m 0,0 km/h (0 Bft) 93,48 %
15.10.2019 19:10 14,4 C 12,2 C 12,2 C 93 % 1007,5 hPa 0,2 l/m 0 min 2 min 0 W/m 3,2 km/h (1 Bft) 93,62 %
15.10.2019 19:08 14,4 C 12,2 C 12,2 C 93 % 1007,5 hPa 0,0 l/m 0 min 2 min 0 W/m 0,0 km/h (0 Bft) 100,00 %
15.10.2019 19:06 14,4 C 12,2 C 12,2 C 93 % 1007,5 hPa 0,0 l/m 0 min 2 min 0 W/m 0,0 km/h (0 Bft) 100,00 %
15.10.2019 19:04 14,5 C 12,2 C 12,2 C 93 % 1007,5 hPa 0,0 l/m 0 min 2 min 0 W/m 3,2 km/h (1 Bft) 100,00 %
15.10.2019 19:02 14,6 C 12,2 C 12,2 C 93 % 1007,5 hPa 0,0 l/m 0 min 2 min 0 W/m 0,0 km/h (0 Bft) 100,00 %
15.10.2019 19:00 14,6 C 12,2 C 12,2 C 93 % 1007,5 hPa 0,0 l/m 0 min 2 min 0 W/m 0,0 km/h (0 Bft) 97,83 %
15.10.2019 18:58 14,6 C 12,2 C 12,2 C 93 % 1007,5 hPa 0,0 l/m 0 min 2 min 0 W/m 0,0 km/h (0 Bft) 97,87 %
15.10.2019 18:56 14,7 C 12,2 C 12,2 C 94 % 1007,5 hPa 0,0 l/m 0 min 2 min 0 W/m 3,2 km/h (1 Bft) 97,87 %
15.10.2019 18:54 14,7 C 12,2 C 12,2 C 94 % 1007,5 hPa 0,0 l/m 0 min 2 min 0 W/m 0,0 km/h (0 Bft) 100,00 %
15.10.2019 18:52 14,7 C 12,2 C 12,2 C 94 % 1007,4 hPa 0,2 l/m 0 min 2 min 0 W/m 0,0 km/h (0 Bft) 93,62 %
15.10.2019 18:50 14,7 C 12,2 C 12,2 C 94 % 1007,4 hPa 0,0 l/m 0 min 2 min 0 W/m 0,0 km/h (0 Bft) 97,87 %
15.10.2019 18:48 14,8 C 12,8 C 12,2 C 94 % 1007,3 hPa 0,0 l/m 0 min 2 min 0 W/m 3,2 km/h (1 Bft) 100,00 %
15.10.2019 18:46 14,8 C 12,8 C 12,2 C 93 % 1007,3 hPa 0,0 l/m 0 min 2 min 0 W/m 3,2 km/h (1 Bft) 100,00 %
15.10.2019 18:44 14,8 C 12,8 C 12,8 C 93 % 1007,3 hPa 0,0 l/m 0 min 2 min 0 W/m 3,2 km/h (1 Bft) 100,00 %
15.10.2019 18:42 14,9 C 12,8 C 12,2 C 93 % 1007,2 hPa 0,2 l/m 0 min 2 min 0 W/m 6,4 km/h (2 Bft) 100,00 %
15.10.2019 18:40 14,9 C 12,8 C 12,8 C 93 % 1007,3 hPa 0,0 l/m 0 min 2 min 0 W/m 6,4 km/h (2 Bft) 100,00 %
15.10.2019 18:38 14,9 C 12,8 C 12,8 C 93 % 1007,2 hPa 0,0 l/m 0 min 2 min 0 W/m 0,0 km/h (0 Bft) 97,14 %
15.10.2019 18:36 15,0 C 12,8 C 12,8 C 94 % 1007,2 hPa 0,0 l/m 0 min 2 min 0 W/m 3,2 km/h (1 Bft) 100,00 %
15.10.2019 18:34 15,0 C 12,8 C 12,8 C 93 % 1007,2 hPa 0,0 l/m 0 min 2 min 0 W/m 6,4 km/h (2 Bft) 100,00 %
15.10.2019 18:32 15,1 C 12,8 C 12,8 C 93 % 1007,2 hPa 0,0 l/m 0 min 2 min 0 W/m 0,0 km/h (0 Bft) 100,00 %
15.10.2019 18:30 15,1 C 13,3 C 12,8 C 93 % 1007,1 hPa 0,0 l/m 0 min 2 min 0 W/m 3,2 km/h (1 Bft) 100,00 %
15.10.2019 18:28 15,1 C 13,3 C 12,8 C 93 % 1007,1 hPa 0,0 l/m 0 min 2 min 0 W/m 3,2 km/h (1 Bft) 100,00 %
15.10.2019 18:26 15,1 C 13,3 C 12,8 C 93 % 1007,1 hPa 0,0 l/m 0 min 2 min 0 W/m 3,2 km/h (1 Bft) 100,00 %
15.10.2019 18:24 15,2 C 13,3 C 12,8 C 93 % 1007,1 hPa 0,0 l/m 0 min 2 min 0 W/m 6,4 km/h (2 Bft) 100,00 %
15.10.2019 18:22 15,2 C 13,3 C 12,8 C 93 % 1007,1 hPa 0,0 l/m 0 min 2 min 2 W/m 3,2 km/h (1 Bft) 100,00 %
15.10.2019 18:20 15,2 C 13,3 C 12,8 C 93 % 1007,1 hPa 0,0 l/m 0 min 2 min 5 W/m 0,0 km/h (0 Bft) 97,87 %
15.10.2019 18:18 15,2 C 13,3 C 12,8 C 93 % 1007,1 hPa 0,0 l/m 0 min 2 min 5 W/m 0,0 km/h (0 Bft) 100,00 %
15.10.2019 18:16 15,2 C 13,3 C 12,8 C 92 % 1007,1 hPa 0,0 l/m 0 min 0 min 5 W/m 0,0 km/h (0 Bft) 97,87 %
15.10.2019 18:14 15,3 C 13,3 C 12,8 C 92 % 1007,1 hPa 0,0 l/m 0 min 2 min 5 W/m 0,0 km/h (0 Bft) 95,74 %
15.10.2019 18:12 15,3 C 13,3 C 12,8 C 92 % 1007,1 hPa 0,0 l/m 0 min 2 min 5 W/m 3,2 km/h (1 Bft) 97,87 %
15.10.2019 18:10 15,3 C 13,3 C 12,8 C 92 % 1007,0 hPa 0,0 l/m 0 min 2 min 7 W/m 3,2 km/h (1 Bft) 97,83 %
15.10.2019 18:08 15,3 C 13,3 C 13,3 C 92 % 1007,0 hPa 0,0 l/m 0 min 4 min 7 W/m 3,2 km/h (1 Bft) 97,87 %
15.10.2019 18:04 15,3 C 13,9 C 13,3 C 92 % 1006,9 hPa 0,0 l/m 0 min 2 min 7 W/m 0,0 km/h (0 Bft) 97,87 %
15.10.2019 18:02 15,3 C 13,9 C 13,3 C 92 % 1006,9 hPa 0,0 l/m 0 min 0 min 7 W/m 0,0 km/h (0 Bft) 93,62 %
15.10.2019 18:00 15,3 C 13,9 C 13,3 C 92 % 1006,8 hPa 0,0 l/m 0 min 2 min 9 W/m 0,0 km/h (0 Bft) 95,65 %
15.10.2019 17:58 15,4 C 13,9 C 13,3 C 92 % 1006,8 hPa 0,0 l/m 0 min 0 min 9 W/m 3,2 km/h (1 Bft) 97,87 %
15.10.2019 17:56 15,4 C 13,9 C 13,3 C 92 % 1006,9 hPa 0,0 l/m 0 min 2 min 8 W/m 3,2 km/h (1 Bft) 97,87 %
15.10.2019 17:54 15,4 C 13,9 C 13,3 C 91 % 1007,0 hPa 0,0 l/m 0 min 0 min 7 W/m 6,4 km/h (2 Bft) 97,87 %
15.10.2019 17:52 15,4 C 13,9 C 13,3 C 91 % 1006,9 hPa 0,0 l/m 0 min 0 min 7 W/m 3,2 km/h (1 Bft) 95,74 %
15.10.2019 17:50 15,4 C 13,9 C 13,3 C 91 % 1006,9 hPa 0,0 l/m 0 min 0 min 8 W/m 3,2 km/h (1 Bft) 97,87 %
15.10.2019 17:48 15,4 C 13,9 C 13,3 C 91 % 1006,8 hPa 0,0 l/m 0 min 2 min 9 W/m 6,4 km/h (2 Bft) 97,83 %
15.10.2019 17:46 15,4 C 13,3 C 13,3 C 91 % 1006,9 hPa 0,0 l/m 0 min 0 min 7 W/m 6,4 km/h (2 Bft) 97,87 %
15.10.2019 17:44 15,4 C 13,3 C 13,3 C 91 % 1006,8 hPa 0,0 l/m 0 min 2 min 7 W/m 3,2 km/h (1 Bft) 97,87 %
15.10.2019 17:42 15,5 C 13,3 C 13,3 C 91 % 1006,7 hPa 0,2 l/m 0 min 2 min 8 W/m 3,2 km/h (1 Bft) 95,74 %
15.10.2019 17:40 15,5 C 13,3 C 13,3 C 91 % 1006,7 hPa 0,0 l/m 0 min 2 min 9 W/m 3,2 km/h (1 Bft) 97,87 %
15.10.2019 17:38 15,5 C 13,3 C 13,3 C 91 % 1006,7 hPa 0,0 l/m 0 min 2 min 9 W/m 3,2 km/h (1 Bft) 97,92 %
15.10.2019 17:36 15,5 C 13,9 C 13,3 C 90 % 1006,7 hPa 0,0 l/m 0 min 2 min 11 W/m 3,2 km/h (1 Bft) 97,87 %
15.10.2019 17:34 15,5 C 13,9 C 13,3 C 90 % 1006,8 hPa 0,0 l/m 0 min 2 min 13 W/m 3,2 km/h (1 Bft) 97,87 %
15.10.2019 17:32 15,5 C 13,9 C 13,9 C 90 % 1006,8 hPa 0,0 l/m 0 min 2 min 14 W/m 12,9 km/h (3 Bft) 95,74 %
15.10.2019 17:30 15,6 C 13,9 C 13,9 C 90 % 1006,8 hPa 0,0 l/m 0 min 2 min 15 W/m 6,4 km/h (2 Bft) 97,83 %
15.10.2019 17:28 15,6 C 14,4 C 13,9 C 90 % 1006,8 hPa 0,0 l/m 0 min 2 min 17 W/m 9,7 km/h (2 Bft) 97,87 %
15.10.2019 17:26 15,6 C 14,4 C 13,9 C 90 % 1006,7 hPa 0,0 l/m 0 min 0 min 23 W/m 9,7 km/h (2 Bft) 95,74 %
15.10.2019 17:24 15,6 C 14,4 C 13,9 C 90 % 1006,7 hPa 0,0 l/m 0 min 0 min 24 W/m 9,7 km/h (2 Bft) 97,87 %
15.10.2019 17:22 15,6 C 14,4 C 14,4 C 90 % 1006,7 hPa 0,0 l/m 0 min 2 min 22 W/m 6,4 km/h (2 Bft) 95,74 %
15.10.2019 17:20 15,7 C 14,4 C 14,4 C 90 % 1006,8 hPa 0,0 l/m 0 min 0 min 18 W/m 6,4 km/h (2 Bft) 93,62 %
15.10.2019 17:18 15,7 C 14,4 C 14,4 C 90 % 1006,7 hPa 0,0 l/m 0 min 2 min 18 W/m 6,4 km/h (2 Bft) 95,74 %
15.10.2019 17:16 15,7 C 14,4 C 14,4 C 90 % 1006,7 hPa 0,0 l/m 0 min 0 min 18 W/m 3,2 km/h (1 Bft) 97,83 %
15.10.2019 17:14 15,7 C 14,4 C 14,4 C 90 % 1006,6 hPa 0,0 l/m 0 min 0 min 18 W/m 9,7 km/h (2 Bft) 97,87 %
15.10.2019 17:12 15,8 C 15,0 C 14,4 C 90 % 1006,6 hPa 0,0 l/m 0 min 0 min 19 W/m 3,2 km/h (1 Bft) 95,83 %
15.10.2019 17:10 15,8 C 15,0 C 14,4 C 91 % 1006,5 hPa 0,0 l/m 0 min 0 min 22 W/m 3,2 km/h (1 Bft) 100,00 %
15.10.2019 17:08 15,8 C 15,0 C 14,4 C 91 % 1006,5 hPa 0,0 l/m 0 min 0 min 28 W/m 6,4 km/h (2 Bft) 95,92 %
15.10.2019 17:06 15,8 C 15,0 C 14,4 C 91 % 1006,6 hPa 0,0 l/m 0 min 0 min 33 W/m 6,4 km/h (2 Bft) 95,65 %
15.10.2019 17:04 15,9 C 15,0 C 14,4 C 91 % 1006,5 hPa 0,0 l/m 0 min 0 min 40 W/m 3,2 km/h (1 Bft) 95,74 %
15.10.2019 17:02 15,9 C 15,0 C 14,4 C 91 % 1006,5 hPa 0,0 l/m 0 min 0 min 42 W/m 3,2 km/h (1 Bft) 95,74 %
15.10.2019 17:00 15,9 C 15,0 C 14,4 C 91 % 1006,5 hPa 0,0 l/m 0 min 0 min 42 W/m 6,4 km/h (2 Bft) 95,74 %
15.10.2019 16:58 15,9 C 15,0 C 14,4 C 91 % 1006,5 hPa 0,0 l/m 0 min 0 min 40 W/m 3,2 km/h (1 Bft) 95,74 %
15.10.2019 16:56 16,0 C 15,0 C 14,4 C 91 % 1006,5 hPa 0,0 l/m 0 min 0 min 39 W/m 3,2 km/h (1 Bft) 95,74 %
15.10.2019 16:54 16,0 C 15,0 C 14,4 C 91 % 1006,5 hPa 0,0 l/m 0 min 0 min 38 W/m 9,7 km/h (2 Bft) 93,48 %
15.10.2019 16:52 16,1 C 15,0 C 14,4 C 91 % 1006,5 hPa 0,0 l/m 0 min 0 min 34 W/m 3,2 km/h (1 Bft) 93,62 %
15.10.2019 16:50 16,1 C 15,0 C 14,4 C 91 % 1006,5 hPa 0,0 l/m 0 min 0 min 29 W/m 9,7 km/h (2 Bft) 93,62 %
15.10.2019 16:48 16,1 C 15,0 C 14,4 C 91 % 1006,5 hPa 0,0 l/m 0 min 0 min 24 W/m 6,4 km/h (2 Bft) 93,62 %
15.10.2019 16:46 16,2 C 15,0 C 14,4 C 91 % 1006,6 hPa 0,0 l/m 0 min 0 min 21 W/m 6,4 km/h (2 Bft) 95,74 %
15.10.2019 16:44 16,2 C 15,0 C 14,4 C 91 % 1006,6 hPa 0,0 l/m 0 min 2 min 21 W/m 6,4 km/h (2 Bft) 95,74 %
15.10.2019 16:42 16,2 C 15,0 C 14,4 C 91 % 1006,6 hPa 0,0 l/m 0 min 0 min 23 W/m 3,2 km/h (1 Bft) 93,48 %
15.10.2019 16:40 16,2 C 15,0 C 14,4 C 91 % 1006,6 hPa 0,0 l/m 0 min 0 min 25 W/m 0,0 km/h (0 Bft) 93,62 %
15.10.2019 16:38 16,3 C 15,0 C 14,4 C 91 % 1006,6 hPa 0,0 l/m 0 min 0 min 25 W/m 0,0 km/h (0 Bft) 93,62 %
15.10.2019 16:36 16,3 C 15,0 C 14,4 C 91 % 1006,6 hPa 0,0 l/m 0 min 0 min 22 W/m 6,4 km/h (2 Bft) 95,74 %
15.10.2019 16:34 16,4 C 15,0 C 14,4 C 91 % 1006,7 hPa 0,0 l/m 0 min 0 min 19 W/m 12,9 km/h (3 Bft) 95,74 %
15.10.2019 16:32 16,4 C 15,0 C 15,0 C 91 % 1006,6 hPa 0,0 l/m 0 min 0 min 20 W/m 6,4 km/h (2 Bft) 97,87 %
15.10.2019 16:30 16,4 C 15,0 C 15,0 C 91 % 1006,7 hPa 0,0 l/m 0 min 0 min 22 W/m 6,4 km/h (2 Bft) 97,83 %
15.10.2019 16:28 16,5 C 15,0 C 15,0 C 91 % 1006,7 hPa 0,0 l/m 0 min 0 min 23 W/m 6,4 km/h (2 Bft) 95,74 %
15.10.2019 16:26 16,5 C 15,0 C 15,0 C 91 % 1006,6 hPa 0,0 l/m 0 min 0 min 20 W/m 3,2 km/h (1 Bft) 95,74 %
15.10.2019 16:24 16,6 C 15,0 C 15,0 C 91 % 1006,6 hPa 0,0 l/m 0 min 0 min 18 W/m 6,4 km/h (2 Bft) 95,74 %
15.10.2019 16:22 16,6 C 15,0 C 15,0 C 91 % 1006,6 hPa 0,0 l/m 0 min 0 min 22 W/m 0,0 km/h (0 Bft) 100,00 %
15.10.2019 16:20 16,6 C 15,6 C 15,0 C 91 % 1006,6 hPa 0,0 l/m 0 min 0 min 32 W/m 3,2 km/h (1 Bft) 95,65 %
15.10.2019 16:18 16,6 C 15,6 C 15,0 C 91 % 1006,6 hPa 0,0 l/m 0 min 0 min 47 W/m 3,2 km/h (1 Bft) 97,87 %
15.10.2019 16:16 16,6 C 15,6 C 15,0 C 90 % 1006,5 hPa 0,0 l/m 0 min 0 min 59 W/m 0,0 km/h (0 Bft) 100,00 %
15.10.2019 16:14 16,6 C 15,0 C 15,0 C 90 % 1006,5 hPa 0,0 l/m 0 min 0 min 65 W/m 6,4 km/h (2 Bft) 100,00 %
15.10.2019 16:12 16,6 C 15,0 C 15,0 C 90 % 1006,5 hPa 0,0 l/m 0 min 0 min 67 W/m 3,2 km/h (1 Bft) 100,00 %
15.10.2019 16:10 16,6 C 15,0 C 14,4 C 90 % 1006,5 hPa 0,0 l/m 0 min 0 min 66 W/m 3,2 km/h (1 Bft) 100,00 %
15.10.2019 16:08 16,6 C 15,0 C 14,4 C 90 % 1006,6 hPa 0,0 l/m 0 min 0 min 63 W/m 3,2 km/h (1 Bft) 100,00 %
15.10.2019 16:06 16,7 C 15,0 C 14,4 C 90 % 1006,6 hPa 0,0 l/m 0 min 0 min 57 W/m 3,2 km/h (1 Bft) 100,00 %
15.10.2019 16:04 16,7 C 15,0 C 14,4 C 90 % 1006,6 hPa 0,0 l/m 0 min 0 min 55 W/m 6,4 km/h (2 Bft) 100,00 %
15.10.2019 16:02 16,7 C 15,0 C 14,4 C 90 % 1006,6 hPa 0,0 l/m 0 min 0 min 52 W/m 9,7 km/h (2 Bft) 100,00 %
15.10.2019 16:00 16,7 C 14,4 C 13,9 C 90 % 1006,6 hPa 0,0 l/m 0 min 0 min 52 W/m 3,2 km/h (1 Bft) 100,00 %
15.10.2019 15:58 16,8 C 14,4 C 13,9 C 90 % 1006,6 hPa 0,0 l/m 0 min 0 min 56 W/m 3,2 km/h (1 Bft) 100,00 %
15.10.2019 15:56 16,8 C 14,4 C 13,9 C 89 % 1006,6 hPa 0,0 l/m 0 min 2 min 60 W/m 6,4 km/h (2 Bft) 97,83 %
15.10.2019 15:54 16,8 C 14,4 C 13,9 C 89 % 1006,7 hPa 0,0 l/m 0 min 2 min 60 W/m 12,9 km/h (3 Bft) 100,00 %
15.10.2019 15:52 16,8 C 14,4 C 14,4 C 89 % 1006,6 hPa 0,0 l/m 0 min 2 min 60 W/m 3,2 km/h (1 Bft) 100,00 %
15.10.2019 15:50 16,9 C 14,4 C 14,4 C 89 % 1006,6 hPa 0,0 l/m 0 min 2 min 64 W/m 3,2 km/h (1 Bft) 100,00 %
15.10.2019 15:48 16,9 C 15,0 C 14,4 C 89 % 1006,5 hPa 0,0 l/m 0 min 2 min 67 W/m 0,0 km/h (0 Bft) 100,00 %
15.10.2019 15:46 16,9 C 15,0 C 14,4 C 89 % 1006,6 hPa 0,0 l/m 0 min 2 min 58 W/m 12,9 km/h (3 Bft) 100,00 %
15.10.2019 15:44 16,9 C 15,0 C 14,4 C 89 % 1006,7 hPa 0,0 l/m 0 min 2 min 52 W/m 3,2 km/h (1 Bft) 100,00 %
15.10.2019 15:42 16,9 C 15,0 C 14,4 C 89 % 1006,7 hPa 0,0 l/m 0 min 2 min 50 W/m 6,4 km/h (2 Bft) 97,87 %
15.10.2019 15:40 16,9 C 15,0 C 14,4 C 89 % 1006,7 hPa 0,0 l/m 0 min 2 min 54 W/m 3,2 km/h (1 Bft) 100,00 %
15.10.2019 15:38 17,0 C 15,0 C 14,4 C 88 % 1006,7 hPa 0,0 l/m 0 min 2 min 62 W/m 12,9 km/h (3 Bft) 100,00 %
15.10.2019 15:36 17,1 C 15,0 C 14,4 C 88 % 1006,8 hPa 0,0 l/m 0 min 2 min 68 W/m 3,2 km/h (1 Bft) 100,00 %
15.10.2019 15:34 17,1 C 15,0 C 14,4 C 88 % 1006,8 hPa 0,0 l/m 0 min 2 min 76 W/m 3,2 km/h (1 Bft) 100,00 %
15.10.2019 15:32 17,1 C 15,0 C 14,4 C 87 % 1006,9 hPa 0,0 l/m 0 min 2 min 83 W/m 0,0 km/h (0 Bft) 100,00 %
15.10.2019 15:30 17,2 C 15,0 C 14,4 C 87 % 1006,8 hPa 0,0 l/m 0 min 0 min 91 W/m 6,4 km/h (2 Bft) 100,00 %
15.10.2019 15:28 17,2 C 15,0 C 14,4 C 87 % 1006,8 hPa 0,0 l/m 0 min 2 min 98 W/m 6,4 km/h (2 Bft) 100,00 %
15.10.2019 15:26 17,2 C 15,0 C 14,4 C 86 % 1006,8 hPa 0,0 l/m 0 min 2 min 94 W/m 12,9 km/h (3 Bft) 100,00 %
15.10.2019 15:24 17,3 C 15,0 C 15,0 C 86 % 1006,9 hPa 0,0 l/m 0 min 2 min 84 W/m 19,3 km/h (3 Bft) 100,00 %
15.10.2019 15:22 17,3 C 15,6 C 15,0 C 86 % 1006,9 hPa 0,0 l/m 0 min 2 min 74 W/m 16,1 km/h (3 Bft) 100,00 %
15.10.2019 15:20 17,3 C 16,1 C 15,6 C 86 % 1006,9 hPa 0,0 l/m 0 min 2 min 67 W/m 16,1 km/h (3 Bft) 100,00 %
15.10.2019 15:18 17,3 C 16,1 C 15,6 C 86 % 1006,9 hPa 0,0 l/m 0 min 0 min 64 W/m 9,7 km/h (2 Bft) 100,00 %
15.10.2019 15:16 17,4 C 16,1 C 16,1 C 86 % 1006,9 hPa 0,0 l/m 0 min 0 min 68 W/m 9,7 km/h (2 Bft) 100,00 %
15.10.2019 15:14 17,4 C 16,7 C 16,1 C 85 % 1006,9 hPa 0,0 l/m 0 min 0 min 69 W/m 16,1 km/h (3 Bft) 100,00 %
15.10.2019 15:12 17,4 C 16,7 C 16,1 C 86 % 1006,9 hPa 0,0 l/m 0 min 0 min 72 W/m 16,1 km/h (3 Bft) 95,74 %
15.10.2019 15:10 17,4 C 16,7 C 16,1 C 86 % 1006,9 hPa 0,0 l/m 0 min 0 min 82 W/m 16,1 km/h (3 Bft) 100,00 %
15.10.2019 15:08 17,4 C 17,2 C 16,1 C 86 % 1006,9 hPa 0,0 l/m 0 min 0 min 92 W/m 19,3 km/h (3 Bft) 100,00 %
15.10.2019 15:06 17,4 C 17,2 C 16,1 C 86 % 1006,9 hPa 0,0 l/m 0 min 0 min 109 W/m 6,4 km/h (2 Bft) 100,00 %
15.10.2019 15:04 17,4 C 17,8 C 16,1 C 86 % 1006,8 hPa 0,0 l/m 0 min 0 min 132 W/m 6,4 km/h (2 Bft) 100,00 %
15.10.2019 15:02 17,4 C 17,8 C 16,7 C 86 % 1006,9 hPa 0,0 l/m 0 min 0 min 157 W/m 6,4 km/h (2 Bft) 100,00 %
15.10.2019 15:00 17,4 C 17,8 C 16,7 C 86 % 1006,8 hPa 0,0 l/m 0 min 0 min 195 W/m 9,7 km/h (2 Bft) 100,00 %
15.10.2019 14:58 17,3 C 18,3 C 16,7 C 86 % 1006,9 hPa 0,0 l/m 2 min 0 min 304 W/m 12,9 km/h (3 Bft) 100,00 %
15.10.2019 14:56 17,3 C 18,3 C 16,7 C 86 % 1006,9 hPa 0,0 l/m 2 min 0 min 297 W/m 12,9 km/h (3 Bft) 100,00 %
15.10.2019 14:54 17,3 C 18,3 C 16,7 C 86 % 1006,9 hPa 0,0 l/m 2 min 0 min 244 W/m 16,1 km/h (3 Bft) 97,83 %
15.10.2019 14:52 17,2 C 17,8 C 16,7 C 86 % 1006,9 hPa 0,0 l/m 2 min 0 min 257 W/m 19,3 km/h (3 Bft) 100,00 %
15.10.2019 14:50 17,2 C 17,8 C 16,7 C 86 % 1006,9 hPa 0,0 l/m 2 min 0 min 248 W/m 16,1 km/h (3 Bft) 97,87 %
15.10.2019 14:48 17,2 C 17,8 C 16,7 C 86 % 1006,9 hPa 0,0 l/m 0 min 0 min 206 W/m 12,9 km/h (3 Bft) 95,74 %
15.10.2019 14:46 17,2 C 17,2 C 16,7 C 86 % 1006,9 hPa 0,0 l/m 0 min 0 min 183 W/m 6,4 km/h (2 Bft) 97,87 %
15.10.2019 14:44 17,2 C 17,2 C 16,7 C 86 % 1006,9 hPa 0,0 l/m 0 min 0 min 169 W/m 6,4 km/h (2 Bft) 97,87 %
15.10.2019 14:42 17,2 C 17,2 C 16,7 C 86 % 1006,9 hPa 0,0 l/m 0 min 0 min 148 W/m 12,9 km/h (3 Bft) 95,65 %
15.10.2019 14:40 17,2 C 17,2 C 16,7 C 87 % 1006,9 hPa 0,0 l/m 0 min 0 min 155 W/m 12,9 km/h (3 Bft) 97,87 %
15.10.2019 14:38 17,2 C 17,8 C 16,7 C 87 % 1006,9 hPa 0,0 l/m 0 min 0 min 178 W/m 12,9 km/h (3 Bft) 97,87 %
15.10.2019 14:36 17,2 C 18,3 C 16,7 C 87 % 1006,9 hPa 0,0 l/m 0 min 0 min 183 W/m 3,2 km/h (1 Bft) 97,87 %
15.10.2019 14:34 17,2 C 18,3 C 16,7 C 87 % 1006,9 hPa 0,0 l/m 0 min 0 min 195 W/m 3,2 km/h (1 Bft) 97,87 %
15.10.2019 14:32 17,1 C 18,3 C 16,7 C 87 % 1006,9 hPa 0,0 l/m 0 min 0 min 215 W/m 6,4 km/h (2 Bft) 97,96 %
15.10.2019 14:30 17,1 C 17,8 C 16,7 C 86 % 1007,0 hPa 0,0 l/m 0 min 0 min 220 W/m 6,4 km/h (2 Bft) 95,74 %
15.10.2019 14:28 17,1 C 17,8 C 16,7 C 86 % 1007,0 hPa 0,0 l/m 0 min 0 min 228 W/m 6,4 km/h (2 Bft) 95,74 %
15.10.2019 14:26 17,1 C 17,2 C 16,1 C 86 % 1007,0 hPa 0,0 l/m 0 min 0 min 219 W/m 12,9 km/h (3 Bft) 93,62 %
15.10.2019 14:24 17,1 C 17,2 C 16,1 C 86 % 1007,1 hPa 0,0 l/m 0 min 0 min 171 W/m 16,1 km/h (3 Bft) 93,62 %
15.10.2019 14:22 17,1 C 17,2 C 16,1 C 86 % 1007,1 hPa 0,0 l/m 0 min 0 min 152 W/m 12,9 km/h (3 Bft) 93,62 %
15.10.2019 14:20 17,0 C 17,2 C 16,1 C 86 % 1007,1 hPa 0,0 l/m 0 min 0 min 144 W/m 12,9 km/h (3 Bft) 93,48 %
15.10.2019 14:18 17,0 C 16,7 C 16,1 C 86 % 1007,1 hPa 0,0 l/m 0 min 0 min 138 W/m 9,7 km/h (2 Bft) 93,62 %
15.10.2019 14:16 17,0 C 17,2 C 16,1 C 86 % 1007,1 hPa 0,0 l/m 0 min 0 min 135 W/m 9,7 km/h (2 Bft) 91,49 %
15.10.2019 14:14 17,0 C 16,7 C 16,1 C 86 % 1007,1 hPa 0,0 l/m 0 min 0 min 132 W/m 12,9 km/h (3 Bft) 93,62 %
15.10.2019 14:12 17,0 C 17,2 C 16,1 C 86 % 1007,1 hPa 0,0 l/m 0 min 0 min 137 W/m 16,1 km/h (3 Bft) 95,74 %
15.10.2019 14:10 17,0 C 17,2 C 16,1 C 87 % 1007,1 hPa 0,0 l/m 0 min 0 min 149 W/m 12,9 km/h (3 Bft) 93,62 %
15.10.2019 14:08 17,1 C 17,2 C 16,1 C 87 % 1007,2 hPa 0,0 l/m 0 min 0 min 175 W/m 12,9 km/h (3 Bft) 93,48 %
15.10.2019 14:06 17,1 C 17,2 C 16,1 C 87 % 1007,2 hPa 0,0 l/m 0 min 0 min 160 W/m 16,1 km/h (3 Bft) 91,49 %
15.10.2019 14:04 17,1 C 17,2 C 16,7 C 88 % 1007,2 hPa 0,0 l/m 0 min 0 min 142 W/m 9,7 km/h (2 Bft) 93,62 %
15.10.2019 14:02 17,1 C 17,2 C 16,1 C 88 % 1007,2 hPa 0,0 l/m 0 min 0 min 138 W/m 3,2 km/h (1 Bft) 93,62 %
15.10.2019 14:00 17,1 C 17,2 C 16,1 C 88 % 1007,3 hPa 0,0 l/m 0 min 0 min 138 W/m 6,4 km/h (2 Bft) 93,62 %
15.10.2019 13:58 17,1 C 17,2 C 16,1 C 88 % 1007,3 hPa 0,0 l/m 0 min 0 min 125 W/m 6,4 km/h (2 Bft) 95,74 %
15.10.2019 13:56 17,0 C 17,2 C 16,1 C 88 % 1007,3 hPa 0,0 l/m 0 min 0 min 128 W/m 6,4 km/h (2 Bft) 95,65 %
15.10.2019 13:54 17,0 C 17,2 C 16,1 C 88 % 1007,3 hPa 0,0 l/m 0 min 0 min 131 W/m 6,4 km/h (2 Bft) 95,74 %
15.10.2019 13:52 17,0 C 17,2 C 16,1 C 88 % 1007,2 hPa 0,0 l/m 0 min 0 min 152 W/m 6,4 km/h (2 Bft) 95,74 %
15.10.2019 13:50 17,0 C 17,2 C 16,7 C 88 % 1007,3 hPa 0,0 l/m 0 min 0 min 152 W/m 12,9 km/h (3 Bft) 93,62 %
15.10.2019 13:48 17,0 C 17,8 C 16,7 C 89 % 1007,3 hPa 0,0 l/m 0 min 0 min 160 W/m 12,9 km/h (3 Bft) 97,87 %
15.10.2019 13:46 16,9 C 17,8 C 16,7 C 89 % 1007,3 hPa 0,0 l/m 0 min 0 min 218 W/m 9,7 km/h (2 Bft) 97,87 %
15.10.2019 13:44 16,9 C 17,8 C 16,7 C 89 % 1007,3 hPa 0,0 l/m 2 min 0 min 274 W/m 16,1 km/h (3 Bft) 97,83 %
15.10.2019 13:42 16,9 C 18,3 C 16,7 C 89 % 1007,3 hPa 0,0 l/m 2 min 0 min 272 W/m 19,3 km/h (3 Bft) 97,87 %
15.10.2019 13:40 16,9 C 17,8 C 16,7 C 89 % 1007,2 hPa 0,0 l/m 0 min 0 min 214 W/m 6,4 km/h (2 Bft) 97,87 %
15.10.2019 13:38 16,8 C 17,2 C 16,1 C 89 % 1007,3 hPa 0,0 l/m 0 min 0 min 160 W/m 3,2 km/h (1 Bft) 97,87 %
15.10.2019 13:36 16,8 C 16,7 C 16,1 C 89 % 1007,4 hPa 0,0 l/m 0 min 2 min 122 W/m 12,9 km/h (3 Bft) 97,87 %
15.10.2019 13:34 16,8 C 16,7 C 16,1 C 88 % 1007,3 hPa 0,0 l/m 0 min 0 min 147 W/m 3,2 km/h (1 Bft) 95,74 %
15.10.2019 13:32 16,8 C 16,7 C 15,6 C 88 % 1007,3 hPa 0,0 l/m 0 min 0 min 162 W/m 3,2 km/h (1 Bft) 95,65 %
15.10.2019 13:30 16,8 C 16,1 C 15,6 C 88 % 1007,4 hPa 0,0 l/m 0 min 0 min 111 W/m 9,7 km/h (2 Bft) 97,87 %
15.10.2019 13:28 16,8 C 16,1 C 15,6 C 88 % 1007,5 hPa 0,0 l/m 0 min 0 min 62 W/m 6,4 km/h (2 Bft) 100,00 %
15.10.2019 13:26 16,9 C 16,1 C 15,6 C 88 % 1007,4 hPa 0,0 l/m 0 min 0 min 72 W/m 16,1 km/h (3 Bft) 100,00 %
15.10.2019 13:24 16,9 C 16,7 C 16,1 C 89 % 1007,3 hPa 0,0 l/m 0 min 0 min 89 W/m 3,2 km/h (1 Bft) 95,74 %
15.10.2019 13:22 16,9 C 16,7 C 16,1 C 88 % 1007,3 hPa 0,0 l/m 0 min 0 min 83 W/m 3,2 km/h (1 Bft) 97,83 %
15.10.2019 13:20 16,9 C 16,1 C 15,6 C 88 % 1007,3 hPa 0,0 l/m 0 min 0 min 74 W/m 3,2 km/h (1 Bft) 97,87 %
15.10.2019 13:18 16,9 C 16,1 C 16,1 C 88 % 1007,3 hPa 0,0 l/m 0 min 0 min 74 W/m 12,9 km/h (3 Bft) 100,00 %
15.10.2019 13:16 16,9 C 16,7 C 16,1 C 89 % 1007,4 hPa 0,0 l/m 0 min 0 min 73 W/m 12,9 km/h (3 Bft) 100,00 %
15.10.2019 13:14 17,0 C 16,7 C 16,1 C 89 % 1007,2 hPa 0,0 l/m 0 min 0 min 91 W/m 3,2 km/h (1 Bft) 97,87 %
15.10.2019 13:12 17,0 C 16,7 C 16,1 C 88 % 1007,2 hPa 0,0 l/m 0 min 0 min 124 W/m 3,2 km/h (1 Bft) 97,87 %
15.10.2019 13:10 17,0 C 16,7 C 16,1 C 88 % 1007,2 hPa 0,0 l/m 0 min 0 min 140 W/m 6,4 km/h (2 Bft) 100,00 %
15.10.2019 13:08 17,0 C 16,7 C 16,1 C 88 % 1007,3 hPa 0,0 l/m 0 min 0 min 129 W/m 6,4 km/h (2 Bft) 100,00 %
15.10.2019 13:06 17,0 C 16,7 C 16,1 C 88 % 1007,2 hPa 0,0 l/m 0 min 0 min 155 W/m 3,2 km/h (1 Bft) 100,00 %
15.10.2019 13:04 17,0 C 16,7 C 16,1 C 88 % 1007,2 hPa 0,0 l/m 0 min 0 min 153 W/m 3,2 km/h (1 Bft) 100,00 %
15.10.2019 13:02 17,0 C 16,7 C 16,1 C 88 % 1007,2 hPa 0,0 l/m 0 min 0 min 131 W/m 12,9 km/h (3 Bft) 100,00 %
15.10.2019 13:00 17,0 C 16,7 C 16,1 C 88 % 1007,2 hPa 0,0 l/m 0 min 0 min 116 W/m 3,2 km/h (1 Bft) 100,00 %
15.10.2019 12:58 17,1 C 16,7 C 16,1 C 88 % 1007,3 hPa 0,0 l/m 0 min 0 min 107 W/m 3,2 km/h (1 Bft) 97,83 %
15.10.2019 12:56 17,1 C 16,7 C 16,1 C 88 % 1007,2 hPa 0,0 l/m 0 min 0 min 89 W/m 0,0 km/h (0 Bft) 100,00 %
15.10.2019 12:54 17,1 C 16,7 C 16,1 C 88 % 1007,2 hPa 0,0 l/m 0 min 0 min 84 W/m 3,2 km/h (1 Bft) 100,00 %
15.10.2019 12:52 17,1 C 16,7 C 16,1 C 88 % 1007,2 hPa 0,0 l/m 0 min 0 min 94 W/m 6,4 km/h (2 Bft) 100,00 %
15.10.2019 12:50 17,1 C 16,7 C 16,1 C 88 % 1007,2 hPa 0,0 l/m 0 min 0 min 98 W/m 3,2 km/h (1 Bft) 100,00 %
15.10.2019 12:48 17,1 C 16,7 C 16,1 C 88 % 1007,2 hPa 0,0 l/m 0 min 0 min 108 W/m 3,2 km/h (1 Bft) 100,00 %
15.10.2019 12:46 17,1 C 16,7 C 16,1 C 88 % 1007,1 hPa 0,0 l/m 0 min 0 min 122 W/m 3,2 km/h (1 Bft) 100,00 %
15.10.2019 12:44 17,1 C 16,7 C 16,1 C 88 % 1007,2 hPa 0,0 l/m 0 min 0 min 105 W/m 3,2 km/h (1 Bft) 100,00 %
15.10.2019 12:42 17,1 C 16,7 C 16,1 C 88 % 1007,2 hPa 0,0 l/m 0 min 0 min 87 W/m 3,2 km/h (1 Bft) 100,00 %
15.10.2019 12:40 17,1 C 16,7 C 16,1 C 88 % 1007,3 hPa 0,0 l/m 0 min 0 min 74 W/m 0,0 km/h (0 Bft) 100,00 %
15.10.2019 12:38 17,1 C 16,7 C 16,1 C 88 % 1007,3 hPa 0,0 l/m 0 min 0 min 68 W/m 6,4 km/h (2 Bft) 100,00 %
15.10.2019 12:36 17,2 C 16,7 C 16,1 C 88 % 1007,3 hPa 0,0 l/m 0 min 0 min 82 W/m 12,9 km/h (3 Bft) 100,00 %
15.10.2019 12:34 17,2 C 16,7 C 16,1 C 88 % 1007,2 hPa 0,0 l/m 0 min 0 min 96 W/m 3,2 km/h (1 Bft) 100,00 %
15.10.2019 12:32 17,2 C 16,7 C 16,1 C 88 % 1007,1 hPa 0,0 l/m 0 min 0 min 105 W/m 3,2 km/h (1 Bft) 100,00 %
15.10.2019 12:30 17,1 C 16,7 C 16,1 C 88 % 1007,1 hPa 0,0 l/m 0 min 0 min 78 W/m 3,2 km/h (1 Bft) 100,00 %
15.10.2019 12:28 17,2 C 16,7 C 16,1 C 88 % 1007,1 hPa 0,0 l/m 0 min 0 min 73 W/m 6,4 km/h (2 Bft) 100,00 %
15.10.2019 12:26 17,2 C 16,7 C 16,1 C 88 % 1006,9 hPa 0,0 l/m 0 min 0 min 105 W/m 3,2 km/h (1 Bft) 100,00 %
15.10.2019 12:24 17,2 C 16,7 C 16,1 C 88 % 1006,9 hPa 0,0 l/m 0 min 0 min 132 W/m 3,2 km/h (1 Bft) 100,00 %
15.10.2019 12:22 17,2 C 16,7 C 16,1 C 88 % 1007,0 hPa 0,0 l/m 0 min 0 min 132 W/m 6,4 km/h (2 Bft) 100,00 %
15.10.2019 12:20 17,2 C 17,2 C 16,1 C 89 % 1007,0 hPa 0,0 l/m 0 min 0 min 115 W/m 6,4 km/h (2 Bft) 100,00 %
15.10.2019 12:18 17,2 C 17,2 C 16,1 C 89 % 1007,1 hPa 0,0 l/m 0 min 0 min 106 W/m 12,9 km/h (3 Bft) 100,00 %
15.10.2019 12:16 17,2 C 17,2 C 16,7 C 89 % 1007,0 hPa 0,0 l/m 0 min 0 min 125 W/m 6,4 km/h (2 Bft) 100,00 %
15.10.2019 12:14 17,2 C 17,8 C 16,7 C 89 % 1006,9 hPa 0,0 l/m 0 min 0 min 168 W/m 3,2 km/h (1 Bft) 100,00 %
15.10.2019 12:12 17,1 C 17,8 C 16,7 C 89 % 1006,9 hPa 0,0 l/m 0 min 0 min 216 W/m 6,4 km/h (2 Bft) 97,87 %
15.10.2019 12:10 17,1 C 17,8 C 16,1 C 89 % 1006,9 hPa 0,0 l/m 0 min 0 min 232 W/m 12,9 km/h (3 Bft) 100,00 %
15.10.2019 12:08 17,1 C 17,2 C 15,6 C 89 % 1006,9 hPa 0,0 l/m 0 min 0 min 190 W/m 6,4 km/h (2 Bft) 100,00 %
15.10.2019 12:04 17,2 C 17,8 C 15,6 C 90 % 1006,9 hPa 0,0 l/m 0 min 2 min 202 W/m 6,4 km/h (2 Bft) 97,83 %
15.10.2019 12:02 17,1 C 17,8 C 15,6 C 90 % 1006,9 hPa 0,0 l/m 0 min 0 min 193 W/m 3,2 km/h (1 Bft) 97,87 %
15.10.2019 12:00 17,1 C 17,8 C 15,6 C 91 % 1006,9 hPa 0,0 l/m 0 min 0 min 169 W/m 3,2 km/h (1 Bft) 97,87 %
15.10.2019 11:58 17,1 C 18,3 C 16,1 C 91 % 1006,8 hPa 0,0 l/m 0 min 0 min 151 W/m 3,2 km/h (1 Bft) 95,74 %
15.10.2019 11:56 17,1 C 18,3 C 15,6 C 91 % 1006,8 hPa 0,0 l/m 0 min 0 min 159 W/m 6,4 km/h (2 Bft) 97,87 %
15.10.2019 11:54 17,1 C 19,4 C 16,1 C 91 % 1006,8 hPa 0,0 l/m 0 min 0 min 192 W/m 3,2 km/h (1 Bft) 95,74 %
15.10.2019 11:52 17,1 C 20,0 C 16,1 C 91 % 1006,8 hPa 0,0 l/m 2 min 0 min 228 W/m 0,0 km/h (0 Bft) 95,65 %
15.10.2019 11:50 17,0 C 20,0 C 16,1 C 92 % 1006,8 hPa 0,0 l/m 2 min 0 min 272 W/m 0,0 km/h (0 Bft) 95,74 %
15.10.2019 11:48 16,9 C 20,0 C 16,1 C 92 % 1006,8 hPa 0,0 l/m 2 min 0 min 306 W/m 3,2 km/h (1 Bft) 95,74 %
15.10.2019 11:46 16,9 C 18,9 C 16,1 C 91 % 1006,8 hPa 0,0 l/m 2 min 0 min 321 W/m 0,0 km/h (0 Bft) 93,62 %
15.10.2019 11:44 16,8 C 18,3 C 15,6 C 92 % 1006,9 hPa 0,0 l/m 2 min 0 min 239 W/m 6,4 km/h (2 Bft) 95,74 %
15.10.2019 11:42 16,8 C 17,8 C 15,6 C 92 % 1006,9 hPa 0,0 l/m 0 min 0 min 220 W/m 3,2 km/h (1 Bft) 93,62 %
15.10.2019 11:40 16,8 C 17,8 C 15,6 C 92 % 1007,0 hPa 0,0 l/m 0 min 0 min 159 W/m 3,2 km/h (1 Bft) 95,65 %
15.10.2019 11:38 16,7 C 17,8 C 15,6 C 92 % 1007,0 hPa 0,0 l/m 0 min 0 min 166 W/m 0,0 km/h (0 Bft) 94,74 %
15.10.2019 11:36 16,7 C 17,8 C 16,1 C 92 % 1006,9 hPa 0,0 l/m 0 min 0 min 210 W/m 3,2 km/h (1 Bft) 93,62 %
15.10.2019 11:34 16,6 C 18,3 C 16,1 C 92 % 1007,0 hPa 0,0 l/m 2 min 0 min 220 W/m 3,2 km/h (1 Bft) 95,74 %
15.10.2019 11:32 16,6 C 18,3 C 15,6 C 92 % 1006,9 hPa 0,0 l/m 0 min 0 min 198 W/m 0,0 km/h (0 Bft) 95,74 %
15.10.2019 11:30 16,5 C 18,3 C 15,6 C 92 % 1006,9 hPa 0,0 l/m 2 min 0 min 246 W/m 0,0 km/h (0 Bft) 95,74 %
15.10.2019 11:28 16,4 C 17,8 C 15,6 C 92 % 1006,8 hPa 0,0 l/m 2 min 0 min 348 W/m 0,0 km/h (0 Bft) 95,74 %
15.10.2019 11:26 16,4 C 17,8 C 15,0 C 92 % 1006,9 hPa 0,0 l/m 2 min 0 min 281 W/m 6,4 km/h (2 Bft) 95,65 %
15.10.2019 11:24 16,3 C 17,2 C 15,0 C 92 % 1006,9 hPa 0,0 l/m 0 min 0 min 181 W/m 3,2 km/h (1 Bft) 95,74 %
15.10.2019 11:22 16,3 C 17,2 C 15,0 C 92 % 1007,0 hPa 0,0 l/m 0 min 0 min 174 W/m 3,2 km/h (1 Bft) 97,87 %
15.10.2019 11:20 16,3 C 17,8 C 15,0 C 92 % 1007,0 hPa 0,0 l/m 0 min 0 min 192 W/m 3,2 km/h (1 Bft) 97,87 %
15.10.2019 11:18 16,3 C 17,8 C 15,0 C 92 % 1007,0 hPa 0,0 l/m 0 min 0 min 192 W/m 3,2 km/h (1 Bft) 97,87 %
15.10.2019 11:16 16,2 C 17,8 C 15,0 C 93 % 1006,9 hPa 0,0 l/m 0 min 0 min 205 W/m 12,9 km/h (3 Bft) 97,87 %
15.10.2019 11:14 16,2 C 17,8 C 15,0 C 93 % 1006,8 hPa 0,0 l/m 2 min 0 min 221 W/m 6,4 km/h (2 Bft) 97,83 %
15.10.2019 11:12 16,2 C 17,8 C 15,0 C 93 % 1006,9 hPa 0,0 l/m 2 min 0 min 208 W/m 6,4 km/h (2 Bft) 97,87 %
15.10.2019 11:10 16,1 C 17,2 C 15,0 C 93 % 1007,0 hPa 0,0 l/m 0 min 0 min 167 W/m 3,2 km/h (1 Bft) 97,87 %
15.10.2019 11:08 16,1 C 17,2 C 15,0 C 93 % 1006,9 hPa 0,0 l/m 0 min 0 min 159 W/m 3,2 km/h (1 Bft) 96,30 %
15.10.2019 11:06 16,1 C 16,7 C 15,0 C 93 % 1006,9 hPa 0,0 l/m 0 min 0 min 152 W/m 3,2 km/h (1 Bft) 93,62 %
15.10.2019 11:04 16,1 C 17,2 C 15,0 C 93 % 1007,0 hPa 0,0 l/m 0 min 0 min 145 W/m 3,2 km/h (1 Bft) 95,74 %
15.10.2019 11:02 16,0 C 16,7 C 15,0 C 93 % 1007,0 hPa 0,0 l/m 0 min 0 min 135 W/m 3,2 km/h (1 Bft) 95,65 %
15.10.2019 11:00 16,0 C 16,7 C 15,0 C 94 % 1006,9 hPa 0,0 l/m 0 min 0 min 136 W/m 0,0 km/h (0 Bft) 93,62 %
15.10.2019 10:58 15,9 C 16,7 C 15,0 C 94 % 1006,9 hPa 0,0 l/m 0 min 0 min 128 W/m 3,2 km/h (1 Bft) 97,87 %
15.10.2019 10:56 15,9 C 16,7 C 15,0 C 94 % 1007,0 hPa 0,0 l/m 0 min 0 min 138 W/m 3,2 km/h (1 Bft) 97,87 %
15.10.2019 10:54 15,8 C 16,7 C 15,0 C 94 % 1007,0 hPa 0,0 l/m 0 min 0 min 163 W/m 0,0 km/h (0 Bft) 97,87 %
15.10.2019 10:52 15,8 C 16,1 C 14,4 C 94 % 1007,0 hPa 0,0 l/m 0 min 0 min 149 W/m 0,0 km/h (0 Bft) 97,87 %
15.10.2019 10:50 15,8 C 16,1 C 14,4 C 94 % 1007,0 hPa 0,0 l/m 0 min 0 min 134 W/m 3,2 km/h (1 Bft) 97,83 %
15.10.2019 10:48 15,8 C 16,1 C 14,4 C 94 % 1007,0 hPa 0,0 l/m 0 min 0 min 114 W/m 3,2 km/h (1 Bft) 95,74 %
15.10.2019 10:46 15,8 C 16,1 C 14,4 C 95 % 1007,0 hPa 0,0 l/m 0 min 0 min 115 W/m 3,2 km/h (1 Bft) 95,74 %
15.10.2019 10:44 15,7 C 16,1 C 14,4 C 95 % 1006,9 hPa 0,0 l/m 0 min 0 min 124 W/m 0,0 km/h (0 Bft) 97,87 %
15.10.2019 10:42 15,7 C 16,1 C 14,4 C 95 % 1006,9 hPa 0,0 l/m 0 min 0 min 139 W/m 6,4 km/h (2 Bft) 97,87 %
15.10.2019 10:40 15,7 C 15,6 C 14,4 C 95 % 1006,9 hPa 0,0 l/m 0 min 0 min 125 W/m 0,0 km/h (0 Bft) 97,87 %
15.10.2019 10:38 15,6 C 15,6 C 14,4 C 95 % 1006,9 hPa 0,0 l/m 0 min 0 min 112 W/m 3,2 km/h (1 Bft) 97,83 %
15.10.2019 10:36 15,6 C 15,6 C 14,4 C 95 % 1006,9 hPa 0,0 l/m 0 min 0 min 96 W/m 3,2 km/h (1 Bft) 95,74 %
15.10.2019 10:34 15,6 C 15,6 C 14,4 C 95 % 1006,9 hPa 0,0 l/m 0 min 0 min 108 W/m 6,4 km/h (2 Bft) 97,87 %
15.10.2019 10:32 15,6 C 15,6 C 14,4 C 95 % 1006,9 hPa 0,0 l/m 0 min 0 min 114 W/m 0,0 km/h (0 Bft) 97,87 %
15.10.2019 10:30 15,6 C 15,6 C 14,4 C 95 % 1006,9 hPa 0,0 l/m 0 min 0 min 87 W/m 9,7 km/h (2 Bft) 97,87 %
15.10.2019 10:28 15,5 C 15,0 C 14,4 C 96 % 1006,9 hPa 0,0 l/m 0 min 0 min 77 W/m 0,0 km/h (0 Bft) 97,87 %
15.10.2019 10:26 15,5 C 15,6 C 14,4 C 96 % 1006,9 hPa 0,0 l/m 0 min 0 min 88 W/m 6,4 km/h (2 Bft) 97,83 %
15.10.2019 10:24 15,4 C 15,6 C 14,4 C 96 % 1006,9 hPa 0,0 l/m 0 min 0 min 114 W/m 3,2 km/h (1 Bft) 95,74 %
15.10.2019 10:22 15,4 C 15,6 C 14,4 C 96 % 1006,9 hPa 0,0 l/m 0 min 0 min 101 W/m 0,0 km/h (0 Bft) 97,87 %
15.10.2019 10:20 15,4 C 15,0 C 14,4 C 96 % 1006,8 hPa 0,0 l/m 0 min 0 min 96 W/m 3,2 km/h (1 Bft) 97,87 %
15.10.2019 10:18 15,4 C 15,6 C 14,4 C 96 % 1006,9 hPa 0,0 l/m 0 min 0 min 121 W/m 3,2 km/h (1 Bft) 95,74 %
15.10.2019 10:16 15,3 C 15,6 C 14,4 C 96 % 1006,8 hPa 0,0 l/m 0 min 0 min 149 W/m 6,4 km/h (2 Bft) 97,83 %
15.10.2019 10:14 15,3 C 15,6 C 14,4 C 96 % 1006,9 hPa 0,0 l/m 0 min 0 min 154 W/m 6,4 km/h (2 Bft) 100,00 %
15.10.2019 10:12 15,3 C 15,6 C 14,4 C 96 % 1006,9 hPa 0,0 l/m 0 min 0 min 112 W/m 0,0 km/h (0 Bft) 100,00 %
15.10.2019 10:10 15,2 C 15,0 C 14,4 C 96 % 1006,9 hPa 0,0 l/m 0 min 0 min 90 W/m 0,0 km/h (0 Bft) 97,87 %
15.10.2019 10:08 15,2 C 15,0 C 14,4 C 96 % 1007,0 hPa 0,0 l/m 0 min 0 min 90 W/m 0,0 km/h (0 Bft) 95,83 %
15.10.2019 10:06 15,1 C 15,0 C 14,4 C 96 % 1007,0 hPa 0,0 l/m 0 min 0 min 115 W/m 0,0 km/h (0 Bft) 97,87 %
15.10.2019 10:04 15,1 C 15,0 C 14,4 C 96 % 1007,1 hPa 0,0 l/m 2 min 0 min 155 W/m 3,2 km/h (1 Bft) 100,00 %
15.10.2019 10:02 15,0 C 15,0 C 13,9 C 96 % 1007,1 hPa 0,0 l/m 2 min 0 min 152 W/m 0,0 km/h (0 Bft) 97,87 %
15.10.2019 10:00 14,9 C 15,0 C 13,9 C 96 % 1007,0 hPa 0,0 l/m 0 min 0 min 137 W/m 3,2 km/h (1 Bft) 97,87 %
15.10.2019 09:58 14,9 C 15,0 C 13,9 C 96 % 1007,1 hPa 0,0 l/m 0 min 0 min 129 W/m 0,0 km/h (0 Bft) 97,87 %
15.10.2019 09:56 14,9 C 14,4 C 13,9 C 96 % 1007,2 hPa 0,0 l/m 0 min 0 min 103 W/m 0,0 km/h (0 Bft) 100,00 %
15.10.2019 09:54 14,8 C 14,4 C 13,3 C 96 % 1007,2 hPa 0,0 l/m 0 min 0 min 85 W/m 0,0 km/h (0 Bft) 100,00 %
15.10.2019 09:52 14,8 C 14,4 C 13,3 C 96 % 1007,1 hPa 0,0 l/m 0 min 0 min 84 W/m 3,2 km/h (1 Bft) 100,00 %
15.10.2019 09:50 14,8 C 14,4 C 13,3 C 96 % 1007,1 hPa 0,0 l/m 0 min 0 min 90 W/m 3,2 km/h (1 Bft) 100,00 %
15.10.2019 09:48 14,7 C 13,9 C 13,3 C 96 % 1007,1 hPa 0,0 l/m 0 min 0 min 82 W/m 6,4 km/h (2 Bft) 100,00 %
15.10.2019 09:46 14,7 C 13,9 C 13,3 C 96 % 1007,1 hPa 0,0 l/m 0 min 0 min 72 W/m 3,2 km/h (1 Bft) 100,00 %
15.10.2019 09:44 14,6 C 13,9 C 13,3 C 96 % 1007,1 hPa 0,0 l/m 0 min 0 min 75 W/m 0,0 km/h (0 Bft) 100,00 %
15.10.2019 09:42 14,6 C 13,9 C 13,3 C 96 % 1007,0 hPa 0,0 l/m 0 min 2 min 83 W/m 0,0 km/h (0 Bft) 100,00 %
15.10.2019 09:40 14,6 C 13,9 C 13,3 C 96 % 1007,1 hPa 0,0 l/m 0 min 2 min 83 W/m 3,2 km/h (1 Bft) 97,87 %
15.10.2019 09:38 14,5 C 13,9 C 13,3 C 96 % 1007,0 hPa 0,0 l/m 0 min 2 min 69 W/m 0,0 km/h (0 Bft) 100,00 %
15.10.2019 09:36 14,5 C 13,9 C 13,3 C 96 % 1006,9 hPa 0,0 l/m 0 min 2 min 54 W/m 0,0 km/h (0 Bft) 100,00 %
15.10.2019 09:34 14,4 C 13,9 C 13,3 C 95 % 1007,0 hPa 0,0 l/m 0 min 2 min 46 W/m 0,0 km/h (0 Bft) 100,00 %
15.10.2019 09:32 14,4 C 13,9 C 13,3 C 95 % 1006,9 hPa 0,0 l/m 0 min 2 min 47 W/m 0,0 km/h (0 Bft) 97,83 %
15.10.2019 09:30 14,4 C 13,3 C 12,8 C 95 % 1006,9 hPa 0,0 l/m 0 min 2 min 47 W/m 0,0 km/h (0 Bft) 97,87 %
15.10.2019 09:28 14,3 C 13,3 C 12,8 C 95 % 1006,9 hPa 0,2 l/m 0 min 2 min 47 W/m 0,0 km/h (0 Bft) 97,87 %
15.10.2019 09:26 14,3 C 13,3 C 12,8 C 95 % 1006,9 hPa 0,0 l/m 0 min 2 min 46 W/m 0,0 km/h (0 Bft) 97,87 %
15.10.2019 09:24 14,3 C 13,3 C 12,8 C 95 % 1007,0 hPa 0,0 l/m 0 min 2 min 39 W/m 0,0 km/h (0 Bft) 97,87 %
15.10.2019 09:22 14,3 C 13,3 C 12,8 C 95 % 1007,0 hPa 0,0 l/m 0 min 2 min 30 W/m 3,2 km/h (1 Bft) 95,74 %
15.10.2019 09:20 14,3 C 13,9 C 13,3 C 95 % 1007,0 hPa 0,0 l/m 0 min 2 min 25 W/m 0,0 km/h (0 Bft) 97,83 %
15.10.2019 09:18 14,3 C 13,9 C 13,3 C 95 % 1007,0 hPa 0,0 l/m 0 min 2 min 26 W/m 0,0 km/h (0 Bft) 97,87 %
15.10.2019 09:16 14,3 C 13,9 C 12,8 C 95 % 1006,9 hPa 0,0 l/m 0 min 2 min 31 W/m 0,0 km/h (0 Bft) 97,87 %
15.10.2019 09:14 14,3 C 13,9 C 12,8 C 95 % 1006,8 hPa 0,0 l/m 0 min 2 min 32 W/m 0,0 km/h (0 Bft) 97,87 %
15.10.2019 09:12 14,3 C 13,9 C 12,8 C 95 % 1006,8 hPa 0,0 l/m 0 min 0 min 29 W/m 3,2 km/h (1 Bft) 97,87 %
15.10.2019 09:10 14,3 C 13,9 C 12,8 C 95 % 1006,8 hPa 0,0 l/m 0 min 2 min 26 W/m 0,0 km/h (0 Bft) 97,83 %
15.10.2019 09:08 14,3 C 13,9 C 12,8 C 95 % 1006,9 hPa 0,0 l/m 0 min 0 min 24 W/m 0,0 km/h (0 Bft) 97,44 %
15.10.2019 09:06 14,3 C 13,9 C 12,8 C 95 % 1006,8 hPa 0,0 l/m 0 min 0 min 22 W/m 0,0 km/h (0 Bft) 97,83 %
15.10.2019 09:04 14,3 C 13,9 C 12,8 C 95 % 1006,8 hPa 0,0 l/m 0 min 2 min 21 W/m 0,0 km/h (0 Bft) 95,74 %
15.10.2019 09:02 14,3 C 13,9 C 13,3 C 95 % 1006,8 hPa 0,0 l/m 0 min 2 min 21 W/m 0,0 km/h (0 Bft) 95,74 %
15.10.2019 09:00 14,2 C 13,9 C 13,3 C 95 % 1006,8 hPa 0,0 l/m 0 min 2 min 26 W/m 0,0 km/h (0 Bft) 97,87 %
15.10.2019 08:58 14,2 C 13,9 C 13,3 C 95 % 1006,8 hPa 0,0 l/m 0 min 2 min 33 W/m 0,0 km/h (0 Bft) 97,87 %
15.10.2019 08:56 14,1 C 13,9 C 13,3 C 95 % 1006,7 hPa 0,0 l/m 0 min 0 min 35 W/m 0,0 km/h (0 Bft) 97,87 %
15.10.2019 08:54 14,1 C 13,9 C 13,3 C 94 % 1006,7 hPa 0,0 l/m 0 min 0 min 39 W/m 3,2 km/h (1 Bft) 97,83 %
15.10.2019 08:52 14,1 C 13,9 C 13,3 C 94 % 1006,6 hPa 0,0 l/m 0 min 0 min 42 W/m 0,0 km/h (0 Bft) 97,87 %
15.10.2019 08:50 14,1 C 13,9 C 12,8 C 94 % 1006,5 hPa 0,0 l/m 0 min 0 min 39 W/m 0,0 km/h (0 Bft) 97,87 %
15.10.2019 08:48 14,1 C 13,3 C 12,8 C 94 % 1006,4 hPa 0,0 l/m 0 min 0 min 31 W/m 3,2 km/h (1 Bft) 97,87 %
15.10.2019 08:46 14,1 C 13,3 C 12,8 C 94 % 1006,3 hPa 0,0 l/m 0 min 0 min 25 W/m 0,0 km/h (0 Bft) 100,00 %
15.10.2019 08:44 14,1 C 13,3 C 12,8 C 94 % 1006,4 hPa 0,0 l/m 0 min 0 min 22 W/m 3,2 km/h (1 Bft) 100,00 %
15.10.2019 08:42 14,0 C 13,3 C 12,8 C 94 % 1006,5 hPa 0,0 l/m 0 min 0 min 20 W/m 0,0 km/h (0 Bft) 97,83 %
15.10.2019 08:40 14,0 C 13,3 C 12,8 C 94 % 1006,4 hPa 0,0 l/m 0 min 0 min 20 W/m 0,0 km/h (0 Bft) 97,87 %
15.10.2019 08:38 14,0 C 13,3 C 12,8 C 94 % 1006,4 hPa 0,0 l/m 0 min 0 min 16 W/m 0,0 km/h (0 Bft) 97,87 %
15.10.2019 08:36 14,0 C 13,3 C 12,8 C 94 % 1006,4 hPa 0,0 l/m 0 min 0 min 14 W/m 0,0 km/h (0 Bft) 95,74 %
15.10.2019 08:34 14,0 C 13,3 C 12,8 C 94 % 1006,4 hPa 0,0 l/m 0 min 0 min 14 W/m 0,0 km/h (0 Bft) 95,74 %
15.10.2019 08:32 14,0 C 13,3 C 12,8 C 94 % 1006,5 hPa 0,0 l/m 0 min 0 min 14 W/m 0,0 km/h (0 Bft) 97,83 %
15.10.2019 08:30 13,9 C 13,3 C 12,8 C 94 % 1006,5 hPa 0,0 l/m 0 min 0 min 14 W/m 3,2 km/h (1 Bft) 97,87 %
15.10.2019 08:28 13,9 C 13,3 C 12,8 C 94 % 1006,4 hPa 0,0 l/m 0 min 0 min 14 W/m 0,0 km/h (0 Bft) 95,74 %
15.10.2019 08:26 13,9 C 13,3 C 12,8 C 94 % 1006,3 hPa 0,0 l/m 0 min 0 min 13 W/m 0,0 km/h (0 Bft) 97,87 %
15.10.2019 08:24 13,9 C 13,3 C 12,8 C 94 % 1006,3 hPa 0,0 l/m 0 min 0 min 10 W/m 0,0 km/h (0 Bft) 97,87 %
15.10.2019 08:22 13,9 C 13,3 C 12,8 C 94 % 1006,3 hPa 0,0 l/m 0 min 0 min 6 W/m 0,0 km/h (0 Bft) 97,87 %
15.10.2019 08:20 13,9 C 13,3 C 12,8 C 93 % 1006,2 hPa 0,0 l/m 0 min 0 min 5 W/m 0,0 km/h (0 Bft) 95,65 %
15.10.2019 08:18 13,9 C 13,3 C 12,8 C 93 % 1006,2 hPa 0,0 l/m 0 min 0 min 1 W/m 0,0 km/h (0 Bft) 100,00 %
15.10.2019 08:16 14,0 C 13,3 C 12,8 C 93 % 1006,2 hPa 0,0 l/m 0 min 0 min 0 W/m 0,0 km/h (0 Bft) 97,87 %
15.10.2019 08:14 14,0 C 13,3 C 12,8 C 93 % 1006,2 hPa 0,0 l/m 0 min 0 min 0 W/m 0,0 km/h (0 Bft) 95,74 %
15.10.2019 08:12 14,0 C 13,3 C 12,8 C 93 % 1006,1 hPa 0,0 l/m 0 min 0 min 0 W/m 0,0 km/h (0 Bft) 95,74 %
15.10.2019 08:10 14,0 C 12,8 C 12,2 C 93 % 1006,0 hPa 0,0 l/m 0 min 0 min 0 W/m 0,0 km/h (0 Bft) 95,74 %
15.10.2019 08:08 14,0 C 12,8 C 12,2 C 93 % 1005,9 hPa 0,0 l/m 0 min 0 min 0 W/m 0,0 km/h (0 Bft) 95,65 %
15.10.2019 08:06 14,0 C 12,8 C 12,2 C 93 % 1005,8 hPa 0,0 l/m 0 min 0 min 0 W/m 0,0 km/h (0 Bft) 95,74 %
15.10.2019 08:04 14,1 C 12,8 C 12,2 C 93 % 1005,7 hPa 0,0 l/m 0 min 0 min 0 W/m 0,0 km/h (0 Bft) 95,74 %
15.10.2019 08:02 14,1 C 12,8 C 12,2 C 93 % 1005,7 hPa 0,0 l/m 0 min 0 min 0 W/m 0,0 km/h (0 Bft) 95,74 %
15.10.2019 08:00 14,1 C 12,8 C 12,2 C 93 % 1005,8 hPa 0,0 l/m 0 min 0 min 0 W/m 0,0 km/h (0 Bft) 95,74 %
15.10.2019 07:58 14,1 C 12,8 C 12,2 C 93 % 1005,9 hPa 0,0 l/m 0 min 0 min 0 W/m 0,0 km/h (0 Bft) 93,62 %
15.10.2019 07:56 14,1 C 12,8 C 12,2 C 93 % 1005,8 hPa 0,0 l/m 0 min 0 min 0 W/m 0,0 km/h (0 Bft) 95,65 %
15.10.2019 07:54 14,1 C 12,8 C 12,2 C 93 % 1005,9 hPa 0,0 l/m 0 min 0 min 0 W/m 0,0 km/h (0 Bft) 95,74 %
15.10.2019 07:52 14,1 C 12,8 C 12,2 C 93 % 1005,8 hPa 0,0 l/m 0 min 0 min 0 W/m 0,0 km/h (0 Bft) 95,74 %
15.10.2019 07:50 14,2 C 12,8 C 12,2 C 93 % 1005,9 hPa 0,0 l/m 0 min 0 min 0 W/m 0,0 km/h (0 Bft) 95,74 %
15.10.2019 07:48 14,2 C 12,8 C 12,8 C 93 % 1005,8 hPa 0,0 l/m 0 min 0 min 0 W/m 0,0 km/h (0 Bft) 95,74 %
15.10.2019 07:46 14,2 C 12,8 C 12,2 C 93 % 1005,9 hPa 0,0 l/m 0 min 0 min 0 W/m 0,0 km/h (0 Bft) 93,62 %
15.10.2019 07:44 14,3 C 12,8 C 12,2 C 93 % 1005,9 hPa 0,0 l/m 0 min 0 min 0 W/m 3,2 km/h (1 Bft) 95,65 %
15.10.2019 07:42 14,3 C 12,8 C 12,2 C 93 % 1005,8 hPa 0,0 l/m 0 min 0 min 0 W/m 0,0 km/h (0 Bft) 95,74 %
15.10.2019 07:40 14,3 C 12,8 C 12,2 C 93 % 1005,8 hPa 0,0 l/m 0 min 0 min 0 W/m 3,2 km/h (1 Bft) 95,74 %
15.10.2019 07:38 14,3 C 12,8 C 12,2 C 93 % 1005,8 hPa 0,0 l/m 0 min 0 min 0 W/m 3,2 km/h (1 Bft) 97,87 %
15.10.2019 07:36 14,3 C 12,8 C 12,2 C 93 % 1005,6 hPa 0,0 l/m 0 min 0 min 0 W/m 0,0 km/h (0 Bft) 97,87 %
15.10.2019 07:34 14,3 C 13,3 C 12,8 C 93 % 1005,6 hPa 0,0 l/m 0 min 0 min 0 W/m 3,2 km/h (1 Bft) 95,74 %
15.10.2019 07:32 14,3 C 12,8 C 12,8 C 93 % 1005,7 hPa 0,0 l/m 0 min 0 min 0 W/m 0,0 km/h (0 Bft) 95,65 %
15.10.2019 07:30 14,3 C 13,3 C 12,8 C 93 % 1005,7 hPa 0,0 l/m 0 min 0 min 0 W/m 0,0 km/h (0 Bft) 97,87 %
15.10.2019 07:28 14,3 C 13,3 C 12,8 C 93 % 1005,7 hPa 0,0 l/m 0 min 0 min 0 W/m 0,0 km/h (0 Bft) 100,00 %
15.10.2019 07:26 14,3 C 13,3 C 12,8 C 93 % 1005,7 hPa 0,0 l/m 0 min 0 min 0 W/m 0,0 km/h (0 Bft) 97,87 %
15.10.2019 07:24 14,3 C 13,3 C 12,8 C 93 % 1005,7 hPa 0,0 l/m 0 min 0 min 0 W/m 0,0 km/h (0 Bft) 97,87 %
15.10.2019 07:22 14,3 C 13,3 C 12,8 C 93 % 1005,6 hPa 0,0 l/m 0 min 0 min 0 W/m 0,0 km/h (0 Bft) 97,83 %
15.10.2019 07:20 14,3 C 13,3 C 12,8 C 92 % 1005,6 hPa 0,0 l/m 0 min 0 min 0 W/m 0,0 km/h (0 Bft) 97,87 %
15.10.2019 07:18 14,3 C 13,3 C 12,8 C 92 % 1005,7 hPa 0,0 l/m 0 min 0 min 0 W/m 0,0 km/h (0 Bft) 100,00 %
15.10.2019 07:16 14,3 C 13,3 C 12,8 C 92 % 1005,8 hPa 0,0 l/m 0 min 0 min 0 W/m 3,2 km/h (1 Bft) 97,87 %
15.10.2019 07:14 14,3 C 13,3 C 12,8 C 92 % 1005,8 hPa 0,0 l/m 0 min 0 min 0 W/m 6,4 km/h (2 Bft) 100,00 %
15.10.2019 07:12 14,3 C 12,8 C 12,8 C 92 % 1005,8 hPa 0,0 l/m 0 min 0 min 0 W/m 3,2 km/h (1 Bft) 100,00 %
15.10.2019 07:10 14,3 C 12,8 C 12,8 C 92 % 1005,9 hPa 0,0 l/m 0 min 0 min 0 W/m 0,0 km/h (0 Bft) 100,00 %
15.10.2019 07:08 14,3 C 12,8 C 12,2 C 92 % 1005,8 hPa 0,0 l/m 0 min 0 min 0 W/m 3,2 km/h (1 Bft) 100,00 %
15.10.2019 07:06 14,3 C 12,8 C 12,2 C 92 % 1005,8 hPa 0,0 l/m 0 min 0 min 0 W/m 3,2 km/h (1 Bft) 100,00 %
15.10.2019 07:04 14,4 C 12,8 C 12,2 C 92 % 1005,7 hPa 0,0 l/m 0 min 0 min 0 W/m 6,4 km/h (2 Bft) 100,00 %
15.10.2019 07:02 14,4 C 12,8 C 12,2 C 92 % 1005,8 hPa 0,0 l/m 0 min 0 min 0 W/m 0,0 km/h (0 Bft) 100,00 %
15.10.2019 07:00 14,4 C 12,8 C 12,2 C 92 % 1005,7 hPa 0,0 l/m 0 min 0 min 0 W/m 0,0 km/h (0 Bft) 100,00 %
_ Min-Zeit 05:30 04:54 05:04 15:14 07:20 - - - - 07:00 19:48
Minimum _ 11,3 C 10,0 C 9,4 C 85 % 1005,6 hPa - - - - 0,0 km/h (0 Bft) 91,30 %
_ Max-Zeit 15:00 11:48 12:12 22:28 06:38 09:28 10:02 18:08 11:28 03:26 07:00
Maximum _ 17,4 C 20,0 C 16,7 C 98 % 1010,3 hPa 0,2 l/m 2 min 4 min 348 W/m 25,7 km/h
S (4 Bft)
100,00 %
Durchschnitt _ 14,3 C 13,3 C 12,7 C 94 % 1007,9 hPa #5,0 l/m #0 min. #1:20 h 0 W/m 6,2 km/h (2 Bft) 97,85 %
© 2019 W. Hausmann